Time,TemperatureF,DewpointF,PressureIn,WindDirection,WindDirectionDegrees,WindSpeedMPH,WindSpeedGustMPH,Humidity,HourlyPrecipIn,Conditions,Clouds,dailyrainin,SoftwareType,DateUTC
2013-12-14 00:00:00,33.7,32.2,30.12,ESE,119,4.0,5.0,94,0.00,,,0.00,Wunderground v.1.15,2013-12-14 05:00:00,
2013-12-14 00:01:00,33.7,32.2,30.12,ESE,110,4.0,5.0,94,0.00,,,0.00,Wunderground v.1.15,2013-12-14 05:01:00,
2013-12-14 00:02:00,33.7,32.2,30.12,ESE,121,4.0,5.0,94,0.00,,,0.00,Wunderground v.1.15,2013-12-14 05:02:00,
2013-12-14 00:04:00,33.7,32.2,30.12,ESE,114,4.0,5.0,94,0.00,,,0.00,Wunderground v.1.15,2013-12-14 05:04:00,
2013-12-14 00:05:00,33.7,32.2,30.12,SE,130,5.0,6.0,94,0.00,,,0.00,Wunderground v.1.15,2013-12-14 05:05:00,
2013-12-14 00:07:00,33.9,32.4,30.12,ESE,120,5.0,6.0,94,0.00,,,0.00,Wunderground v.1.15,2013-12-14 05:07:00,
2013-12-14 00:08:00,33.9,32.4,30.12,ESE,120,4.0,6.0,94,0.00,,,0.00,Wunderground v.1.15,2013-12-14 05:08:00,
2013-12-14 00:10:00,33.9,32.4,30.12,ESE,120,4.0,4.0,94,0.00,,,0.00,Wunderground v.1.15,2013-12-14 05:10:00,
2013-12-14 00:11:00,33.9,32.4,30.12,ESE,120,4.0,4.0,94,0.00,,,0.00,Wunderground v.1.15,2013-12-14 05:11:00,
2013-12-14 00:15:00,34.2,32.7,30.12,ESE,120,3.0,7.0,94,0.00,,,0.00,Wunderground v.1.15,2013-12-14 05:15:00,
2013-12-14 00:16:00,34.2,32.7,30.12,ESE,113,3.0,7.0,94,0.00,,,0.00,Wunderground v.1.15,2013-12-14 05:16:00,
2013-12-14 00:18:00,34.2,32.7,30.12,SE,133,3.0,7.0,94,0.00,,,0.00,Wunderground v.1.15,2013-12-14 05:18:00,
2013-12-14 00:19:00,34.3,32.8,30.12,SE,133,3.0,7.0,94,0.00,,,0.00,Wunderground v.1.15,2013-12-14 05:19:00,
2013-12-14 00:21:00,34.3,32.8,30.12,SE,127,4.0,4.0,94,0.00,,,0.00,Wunderground v.1.15,2013-12-14 05:21:00,
2013-12-14 00:22:00,34.3,32.8,30.12,SE,127,3.0,4.0,94,0.00,,,0.00,Wunderground v.1.15,2013-12-14 05:22:00,
2013-12-14 00:25:00,34.5,33.0,30.12,ESE,123,3.0,6.0,94,0.00,,,0.00,Wunderground v.1.15,2013-12-14 05:25:00,
2013-12-14 00:27:00,34.5,32.7,30.12,SE,133,3.0,6.0,93,0.00,,,0.00,Wunderground v.1.15,2013-12-14 05:27:00,
2013-12-14 00:32:00,34.6,32.8,30.11,ESE,114,4.0,7.0,93,0.00,,,0.00,Wunderground v.1.15,2013-12-14 05:32:00,
2013-12-14 00:33:00,34.6,32.8,30.11,ESE,117,5.0,7.0,93,0.00,,,0.00,Wunderground v.1.15,2013-12-14 05:33:00,
2013-12-14 00:34:00,34.6,32.8,30.11,ESE,120,5.0,7.0,93,0.00,,,0.00,Wunderground v.1.15,2013-12-14 05:34:00,
2013-12-14 00:37:00,34.6,32.8,30.11,SE,137,4.0,7.0,93,0.00,,,0.00,Wunderground v.1.15,2013-12-14 05:37:00,
2013-12-14 00:39:00,34.6,32.8,30.11,ESE,119,4.0,7.0,93,0.00,,,0.00,Wunderground v.1.15,2013-12-14 05:39:00,
2013-12-14 00:40:00,34.6,32.8,30.11,ESE,120,4.0,4.0,93,0.00,,,0.00,Wunderground v.1.15,2013-12-14 05:40:00,
2013-12-14 00:42:00,34.6,32.8,30.11,ESE,121,3.0,4.0,93,0.00,,,0.00,Wunderground v.1.15,2013-12-14 05:42:00,
2013-12-14 00:45:00,34.6,32.8,30.09,SE,130,2.0,4.0,93,0.00,,,0.00,Wunderground v.1.15,2013-12-14 05:45:00,
2013-12-14 00:47:00,34.6,32.8,30.09,SE,130,2.0,4.0,93,0.00,,,0.00,Wunderground v.1.15,2013-12-14 05:47:00,
2013-12-14 00:49:00,34.6,33.1,30.09,SE,126,2.0,5.0,94,0.00,,,0.00,Wunderground v.1.15,2013-12-14 05:49:00,
2013-12-14 00:50:00,34.5,33.0,30.09,SE,126,2.0,2.0,94,0.00,,,0.00,Wunderground v.1.15,2013-12-14 05:50:00,
2013-12-14 00:51:00,34.5,33.0,30.09,SE,126,2.0,2.0,94,0.00,,,0.00,Wunderground v.1.15,2013-12-14 05:51:00,
2013-12-14 00:52:00,34.5,33.0,30.09,SE,126,2.0,2.0,94,0.00,,,0.00,Wunderground v.1.15,2013-12-14 05:52:00,
2013-12-14 00:55:00,34.5,33.0,30.09,SE,126,1.0,3.0,94,0.00,,,0.00,Wunderground v.1.15,2013-12-14 05:55:00,
2013-12-14 00:56:00,34.6,33.1,30.09,SE,126,2.0,3.0,94,0.00,,,0.00,Wunderground v.1.15,2013-12-14 05:56:00,
2013-12-14 00:57:00,34.6,33.1,30.09,SE,126,2.0,3.0,94,0.00,,,0.00,Wunderground v.1.15,2013-12-14 05:57:00,
2013-12-14 01:00:00,34.6,33.1,30.08,SE,128,2.0,2.0,94,0.00,,,0.00,Wunderground v.1.15,2013-12-14 06:00:00,
2013-12-14 01:01:00,34.6,33.1,30.08,SE,124,2.0,3.0,94,0.00,,,0.00,Wunderground v.1.15,2013-12-14 06:01:00,
2013-12-14 01:02:00,34.6,33.1,30.08,SE,124,2.0,3.0,94,0.00,,,0.01,Wunderground v.1.15,2013-12-14 06:02:00,
2013-12-14 01:03:00,34.6,33.1,30.08,SE,124,2.0,3.0,94,0.00,,,0.01,Wunderground v.1.15,2013-12-14 06:03:00,
2013-12-14 01:04:00,34.6,33.1,30.08,SE,130,3.0,3.0,94,0.00,,,0.01,Wunderground v.1.15,2013-12-14 06:04:00,
2013-12-14 01:06:00,34.6,33.1,30.08,ESE,119,2.0,5.0,94,0.00,,,0.01,Wunderground v.1.15,2013-12-14 06:06:00,
2013-12-14 01:07:00,34.6,33.1,30.08,ESE,120,2.0,6.0,94,0.00,,,0.01,Wunderground v.1.15,2013-12-14 06:07:00,
2013-12-14 01:10:00,34.8,33.2,30.08,SE,126,2.0,2.0,94,0.00,,,0.01,Wunderground v.1.15,2013-12-14 06:10:00,
2013-12-14 01:11:00,34.8,33.2,30.08,SE,126,2.0,2.0,94,0.00,,,0.01,Wunderground v.1.15,2013-12-14 06:11:00,
2013-12-14 01:12:00,34.6,33.1,30.08,SE,126,2.0,2.0,94,0.00,,,0.01,Wunderground v.1.15,2013-12-14 06:12:00,
2013-12-14 01:14:00,34.6,33.1,30.08,SE,128,2.0,2.0,94,0.00,,,0.01,Wunderground v.1.15,2013-12-14 06:14:00,
2013-12-14 01:15:00,34.8,33.2,30.08,SE,128,1.0,2.0,94,0.00,,,0.01,Wunderground v.1.15,2013-12-14 06:15:00,
2013-12-14 01:16:00,34.8,33.2,30.08,SE,128,1.0,2.0,94,0.00,,,0.01,Wunderground v.1.15,2013-12-14 06:16:00,
2013-12-14 01:19:00,34.8,33.2,30.08,SE,128,0.0,2.0,94,0.00,,,0.01,Wunderground v.1.15,2013-12-14 06:19:00,
2013-12-14 01:20:00,34.8,33.2,30.08,SE,128,0.0,0.0,94,0.00,,,0.01,Wunderground v.1.15,2013-12-14 06:20:00,
2013-12-14 01:24:00,34.9,33.6,30.08,SE,128,0.0,1.0,95,0.00,,,0.01,Wunderground v.1.15,2013-12-14 06:24:00,
2013-12-14 01:25:00,34.9,33.6,30.08,SE,128,0.0,2.0,95,0.00,,,0.01,Wunderground v.1.15,2013-12-14 06:25:00,
2013-12-14 01:26:00,34.9,33.6,30.08,SE,128,0.0,2.0,95,0.00,,,0.01,Wunderground v.1.15,2013-12-14 06:26:00,
2013-12-14 01:29:00,34.9,33.3,30.08,SE,127,1.0,3.0,94,0.00,,,0.01,Wunderground v.1.15,2013-12-14 06:29:00,
2013-12-14 01:31:00,34.9,33.6,30.07,SE,127,2.0,2.0,95,0.00,,,0.01,Wunderground v.1.15,2013-12-14 06:31:00,
2013-12-14 01:33:00,34.9,33.3,30.07,SE,127,2.0,2.0,94,0.00,,,0.01,Wunderground v.1.15,2013-12-14 06:33:00,
2013-12-14 01:35:00,34.9,33.3,30.07,SE,127,2.0,2.0,94,0.00,,,0.01,Wunderground v.1.15,2013-12-14 06:35:00,
2013-12-14 01:36:00,34.9,33.6,30.07,SE,127,2.0,2.0,95,0.00,,,0.01,Wunderground v.1.15,2013-12-14 06:36:00,
2013-12-14 01:37:00,34.9,33.6,30.07,SE,127,2.0,2.0,95,0.00,,,0.01,Wunderground v.1.15,2013-12-14 06:37:00,
2013-12-14 01:38:00,34.9,33.6,30.07,SE,127,2.0,2.0,95,0.00,,,0.01,Wunderground v.1.15,2013-12-14 06:38:00,
2013-12-14 01:40:00,34.9,33.6,30.07,SE,127,2.0,2.0,95,0.00,,,0.01,Wunderground v.1.15,2013-12-14 06:40:00,
2013-12-14 01:44:00,34.9,33.6,30.07,SE,127,2.0,2.0,95,0.00,,,0.01,Wunderground v.1.15,2013-12-14 06:44:00,
2013-12-14 01:45:00,34.9,33.6,30.06,SE,127,2.0,2.0,95,0.00,,,0.01,Wunderground v.1.15,2013-12-14 06:45:00,
2013-12-14 01:47:00,34.9,33.6,30.06,SE,127,2.0,2.0,95,0.00,,,0.01,Wunderground v.1.15,2013-12-14 06:47:00,
2013-12-14 01:48:00,34.9,33.6,30.06,SE,127,2.0,2.0,95,0.00,,,0.01,Wunderground v.1.15,2013-12-14 06:48:00,
2013-12-14 01:50:00,34.9,33.6,30.06,SE,127,2.0,2.0,95,0.00,,,0.01,Wunderground v.1.15,2013-12-14 06:50:00,
2013-12-14 01:52:00,35.1,33.8,30.06,SE,127,2.0,2.0,95,0.00,,,0.01,Wunderground v.1.15,2013-12-14 06:52:00,
2013-12-14 01:53:00,35.1,33.8,30.06,SE,127,2.0,2.0,95,0.00,,,0.01,Wunderground v.1.15,2013-12-14 06:53:00,
2013-12-14 01:54:00,35.1,33.8,30.06,SE,127,2.0,2.0,95,0.00,,,0.01,Wunderground v.1.15,2013-12-14 06:54:00,
2013-12-14 01:56:00,35.1,33.8,30.06,SE,127,1.0,2.0,95,0.00,,,0.01,Wunderground v.1.15,2013-12-14 06:56:00,
2013-12-14 01:57:00,35.1,33.8,30.06,SE,127,1.0,2.0,95,0.00,,,0.01,Wunderground v.1.15,2013-12-14 06:57:00,
2013-12-14 01:59:00,35.1,33.8,30.06,SE,127,1.0,2.0,95,0.00,,,0.01,Wunderground v.1.15,2013-12-14 06:59:00,
2013-12-14 02:00:00,35.1,33.8,30.05,SE,127,1.0,1.0,95,0.00,,,0.01,Wunderground v.1.15,2013-12-14 07:00:00,
2013-12-14 02:02:00,35.1,33.8,30.05,SE,127,0.0,1.0,95,0.00,,,0.01,Wunderground v.1.15,2013-12-14 07:02:00,
2013-12-14 02:05:00,35.1,33.8,30.05,SE,127,0.0,1.0,95,0.00,,,0.01,Wunderground v.1.15,2013-12-14 07:05:00,
2013-12-14 02:06:00,35.1,33.8,30.05,SE,127,0.0,1.0,95,0.00,,,0.01,Wunderground v.1.15,2013-12-14 07:06:00,
2013-12-14 02:11:00,35.1,33.8,30.05,SE,127,0.0,0.0,95,0.00,,,0.01,Wunderground v.1.15,2013-12-14 07:11:00,
2013-12-14 02:12:00,35.1,33.8,30.05,SE,127,0.0,0.0,95,0.00,,,0.01,Wunderground v.1.15,2013-12-14 07:12:00,
2013-12-14 02:13:00,35.1,33.8,30.05,SE,127,0.0,0.0,95,0.00,,,0.01,Wunderground v.1.15,2013-12-14 07:13:00,
2013-12-14 02:16:00,34.9,33.6,30.06,SE,127,0.0,0.0,95,0.00,,,0.01,Wunderground v.1.15,2013-12-14 07:16:00,
2013-12-14 02:17:00,34.9,33.6,30.06,SE,127,0.0,0.0,95,0.00,,,0.01,Wunderground v.1.15,2013-12-14 07:17:00,
2013-12-14 02:18:00,34.9,33.6,30.06,SE,127,0.0,0.0,95,0.00,,,0.01,Wunderground v.1.15,2013-12-14 07:18:00,
2013-12-14 02:20:00,34.9,33.6,30.06,SE,127,0.0,0.0,95,0.00,,,0.01,Wunderground v.1.15,2013-12-14 07:20:00,
2013-12-14 02:22:00,34.9,33.6,30.06,SE,127,0.0,0.0,95,0.00,,,0.01,Wunderground v.1.15,2013-12-14 07:22:00,
2013-12-14 02:24:00,34.9,33.6,30.06,SE,127,0.0,0.0,95,0.00,,,0.01,Wunderground v.1.15,2013-12-14 07:24:00,
2013-12-14 02:25:00,34.9,33.6,30.06,SE,127,0.0,0.0,95,0.00,,,0.01,Wunderground v.1.15,2013-12-14 07:25:00,
2013-12-14 02:26:00,34.9,33.6,30.06,SE,127,0.0,0.0,95,0.00,,,0.01,Wunderground v.1.15,2013-12-14 07:26:00,
2013-12-14 02:29:00,34.9,33.6,30.06,SE,127,0.0,0.0,95,0.00,,,0.02,Wunderground v.1.15,2013-12-14 07:29:00,
2013-12-14 02:31:00,34.9,33.6,30.05,SE,127,0.0,0.0,95,0.00,,,0.02,Wunderground v.1.15,2013-12-14 07:31:00,
2013-12-14 02:32:00,34.9,33.6,30.05,SE,127,0.0,0.0,95,0.00,,,0.02,Wunderground v.1.15,2013-12-14 07:32:00,
2013-12-14 02:33:00,34.9,33.6,30.05,SE,127,0.0,0.0,95,0.00,,,0.02,Wunderground v.1.15,2013-12-14 07:33:00,
2013-12-14 02:34:00,34.9,33.6,30.05,SE,127,0.0,0.0,95,0.00,,,0.02,Wunderground v.1.15,2013-12-14 07:34:00,
2013-12-14 02:35:00,34.9,33.6,30.05,SE,127,0.0,0.0,95,0.00,,,0.02,Wunderground v.1.15,2013-12-14 07:35:00,
2013-12-14 02:36:00,34.9,33.6,30.05,SE,127,0.0,0.0,95,0.00,,,0.02,Wunderground v.1.15,2013-12-14 07:36:00,
2013-12-14 02:37:00,34.8,33.5,30.05,SE,127,0.0,0.0,95,0.00,,,0.02,Wunderground v.1.15,2013-12-14 07:37:00,
2013-12-14 02:41:00,34.9,33.6,30.05,SE,127,0.0,0.0,95,0.00,,,0.02,Wunderground v.1.15,2013-12-14 07:41:00,
2013-12-14 02:43:00,34.9,33.6,30.05,SE,127,0.0,0.0,95,0.00,,,0.02,Wunderground v.1.15,2013-12-14 07:43:00,
2013-12-14 02:44:00,34.9,33.6,30.05,SE,127,0.0,0.0,95,0.00,,,0.02,Wunderground v.1.15,2013-12-14 07:44:00,
2013-12-14 02:48:00,34.9,33.6,30.05,SE,127,0.0,0.0,95,0.00,,,0.02,Wunderground v.1.15,2013-12-14 07:48:00,
2013-12-14 02:50:00,34.9,33.9,30.05,SE,127,0.0,0.0,96,0.00,,,0.02,Wunderground v.1.15,2013-12-14 07:50:00,
2013-12-14 02:51:00,34.9,33.6,30.05,SE,127,0.0,0.0,95,0.00,,,0.02,Wunderground v.1.15,2013-12-14 07:51:00,
2013-12-14 02:52:00,34.9,33.6,30.05,SE,127,0.0,0.0,95,0.00,,,0.02,Wunderground v.1.15,2013-12-14 07:52:00,
2013-12-14 02:55:00,35.1,34.1,30.05,SE,127,0.0,0.0,96,0.00,,,0.02,Wunderground v.1.15,2013-12-14 07:55:00,
2013-12-14 02:56:00,35.1,34.1,30.05,SE,127,0.0,0.0,96,0.00,,,0.02,Wunderground v.1.15,2013-12-14 07:56:00,
2013-12-14 02:58:00,35.1,34.1,30.05,SE,127,0.0,0.0,96,0.00,,,0.02,Wunderground v.1.15,2013-12-14 07:58:00,
2013-12-14 02:59:00,35.1,34.1,30.05,SE,127,0.0,0.0,96,0.00,,,0.02,Wunderground v.1.15,2013-12-14 07:59:00,
2013-12-14 03:01:00,35.1,34.1,30.05,SE,127,0.0,0.0,96,0.00,,,0.02,Wunderground v.1.15,2013-12-14 08:01:00,
2013-12-14 03:02:00,35.1,34.1,30.05,SE,127,0.0,0.0,96,0.00,,,0.02,Wunderground v.1.15,2013-12-14 08:02:00,
2013-12-14 03:04:00,35.1,34.1,30.05,SE,127,0.0,0.0,96,0.00,,,0.02,Wunderground v.1.15,2013-12-14 08:04:00,
2013-12-14 03:09:00,35.1,34.1,30.05,SE,127,0.0,0.0,96,0.00,,,0.02,Wunderground v.1.15,2013-12-14 08:09:00,
2013-12-14 03:10:00,35.1,34.1,30.05,SE,127,0.0,0.0,96,0.00,,,0.02,Wunderground v.1.15,2013-12-14 08:10:00,
2013-12-14 03:11:00,35.1,34.1,30.05,SE,127,0.0,0.0,96,0.00,,,0.02,Wunderground v.1.15,2013-12-14 08:11:00,
2013-12-14 03:14:00,35.1,34.1,30.05,SE,127,0.0,0.0,96,0.00,,,0.02,Wunderground v.1.15,2013-12-14 08:14:00,
2013-12-14 03:16:00,35.1,34.1,30.06,SE,127,0.0,0.0,96,0.00,,,0.02,Wunderground v.1.15,2013-12-14 08:16:00,
2013-12-14 03:17:00,35.1,34.1,30.06,SE,127,0.0,0.0,96,0.00,,,0.02,Wunderground v.1.15,2013-12-14 08:17:00,
2013-12-14 03:20:00,35.1,34.1,30.06,SE,127,0.0,0.0,96,0.00,,,0.03,Wunderground v.1.15,2013-12-14 08:20:00,
2013-12-14 03:21:00,35.1,34.1,30.06,SE,127,0.0,0.0,96,0.00,,,0.03,Wunderground v.1.15,2013-12-14 08:21:00,
2013-12-14 03:22:00,35.1,34.1,30.06,SE,127,0.0,0.0,96,0.00,,,0.03,Wunderground v.1.15,2013-12-14 08:22:00,
2013-12-14 03:24:00,34.9,33.9,30.06,SE,127,0.0,0.0,96,0.00,,,0.03,Wunderground v.1.15,2013-12-14 08:24:00,
2013-12-14 03:27:00,34.9,33.9,30.06,SE,127,1.0,2.0,96,0.11,,,0.04,Wunderground v.1.15,2013-12-14 08:27:00,
2013-12-14 03:28:00,35.1,34.1,30.06,SE,127,1.0,2.0,96,0.11,,,0.04,Wunderground v.1.15,2013-12-14 08:28:00,
2013-12-14 03:29:00,35.1,34.1,30.06,SE,127,1.0,2.0,96,0.11,,,0.04,Wunderground v.1.15,2013-12-14 08:29:00,
2013-12-14 03:32:00,35.1,34.1,30.05,SE,127,2.0,2.0,96,0.08,,,0.04,Wunderground v.1.15,2013-12-14 08:32:00,
2013-12-14 03:34:00,35.1,34.1,30.05,SE,127,2.0,2.0,96,0.06,,,0.04,Wunderground v.1.15,2013-12-14 08:34:00,
2013-12-14 03:39:00,35.1,34.1,30.05,SE,127,1.0,2.0,96,0.04,,,0.04,Wunderground v.1.15,2013-12-14 08:39:00,
2013-12-14 03:40:00,35.1,34.1,30.05,SE,127,1.0,1.0,96,0.04,,,0.04,Wunderground v.1.15,2013-12-14 08:40:00,
2013-12-14 03:41:00,34.9,33.9,30.05,SE,127,1.0,1.0,96,0.04,,,0.04,Wunderground v.1.15,2013-12-14 08:41:00,
2013-12-14 03:42:00,34.9,33.9,30.05,SE,127,1.0,1.0,96,0.00,,,0.04,Wunderground v.1.15,2013-12-14 08:42:00,
2013-12-14 03:46:00,35.1,34.1,30.04,SE,127,0.0,1.0,96,0.00,,,0.05,Wunderground v.1.15,2013-12-14 08:46:00,
2013-12-14 03:47:00,35.1,34.1,30.04,SE,127,0.0,1.0,96,0.00,,,0.05,Wunderground v.1.15,2013-12-14 08:47:00,
2013-12-14 03:48:00,35.1,34.1,30.04,SE,127,0.0,1.0,96,0.00,,,0.05,Wunderground v.1.15,2013-12-14 08:48:00,
2013-12-14 03:49:00,35.1,34.1,30.04,SE,127,0.0,1.0,96,0.00,,,0.05,Wunderground v.1.15,2013-12-14 08:49:00,
2013-12-14 03:53:00,35.1,34.1,30.04,SE,127,0.0,0.0,96,0.00,,,0.05,Wunderground v.1.15,2013-12-14 08:53:00,
2013-12-14 03:54:00,35.1,34.1,30.04,SE,127,0.0,0.0,96,0.00,,,0.05,Wunderground v.1.15,2013-12-14 08:54:00,
2013-12-14 03:55:00,35.1,34.1,30.04,SE,127,0.0,0.0,96,0.00,,,0.05,Wunderground v.1.15,2013-12-14 08:55:00,
2013-12-14 03:57:00,35.1,34.1,30.04,SE,127,0.0,0.0,96,0.00,,,0.05,Wunderground v.1.15,2013-12-14 08:57:00,
2013-12-14 04:00:00,35.1,34.1,30.03,SE,127,0.0,0.0,96,0.00,,,0.05,Wunderground v.1.15,2013-12-14 09:00:00,
2013-12-14 04:02:00,35.1,34.1,30.03,SE,127,0.0,0.0,96,0.00,,,0.05,Wunderground v.1.15,2013-12-14 09:02:00,
2013-12-14 04:03:00,34.9,33.9,30.03,SE,127,0.0,0.0,96,0.00,,,0.05,Wunderground v.1.15,2013-12-14 09:03:00,
2013-12-14 04:04:00,34.9,33.9,30.03,SE,127,0.0,0.0,96,0.00,,,0.05,Wunderground v.1.15,2013-12-14 09:04:00,
2013-12-14 04:08:00,34.9,33.9,30.03,SE,127,0.0,0.0,96,0.00,,,0.05,Wunderground v.1.15,2013-12-14 09:08:00,
2013-12-14 04:10:00,34.9,33.9,30.03,SE,127,0.0,0.0,96,0.00,,,0.05,Wunderground v.1.15,2013-12-14 09:10:00,
2013-12-14 04:12:00,34.8,33.8,30.03,SE,127,0.0,1.0,96,0.00,,,0.05,Wunderground v.1.15,2013-12-14 09:12:00,
2013-12-14 04:15:00,34.8,33.8,30.02,SE,127,0.0,1.0,96,0.00,,,0.05,Wunderground v.1.15,2013-12-14 09:15:00,
2013-12-14 04:19:00,34.6,33.6,30.02,SE,127,0.0,1.0,96,0.00,,,0.05,Wunderground v.1.15,2013-12-14 09:19:00,
2013-12-14 04:20:00,34.6,33.8,30.02,SE,127,0.0,0.0,97,0.00,,,0.05,Wunderground v.1.15,2013-12-14 09:20:00,
2013-12-14 04:21:00,34.6,33.8,30.02,SE,127,0.0,0.0,97,0.00,,,0.05,Wunderground v.1.15,2013-12-14 09:21:00,
2013-12-14 04:25:00,34.5,33.7,30.02,SE,127,0.0,0.0,97,0.00,,,0.06,Wunderground v.1.15,2013-12-14 09:25:00,
2013-12-14 04:27:00,34.5,33.7,30.02,SE,127,0.0,0.0,97,0.00,,,0.06,Wunderground v.1.15,2013-12-14 09:27:00,
2013-12-14 04:29:00,34.5,33.7,30.02,SE,127,0.0,0.0,97,0.00,,,0.06,Wunderground v.1.15,2013-12-14 09:29:00,
2013-12-14 04:30:00,34.5,33.7,30.02,SE,127,0.0,0.0,97,0.00,,,0.06,Wunderground v.1.15,2013-12-14 09:30:00,
2013-12-14 04:31:00,34.5,33.7,30.02,SE,127,0.0,0.0,97,0.00,,,0.06,Wunderground v.1.15,2013-12-14 09:31:00,
2013-12-14 04:33:00,34.5,33.7,30.02,SE,124,0.0,0.0,97,0.00,,,0.06,Wunderground v.1.15,2013-12-14 09:33:00,
2013-12-14 04:34:00,34.5,33.7,30.02,SE,124,0.0,0.0,97,0.00,,,0.06,Wunderground v.1.15,2013-12-14 09:34:00,
2013-12-14 04:35:00,34.5,33.7,30.02,SE,124,0.0,0.0,97,0.00,,,0.06,Wunderground v.1.15,2013-12-14 09:35:00,
2013-12-14 04:36:00,34.5,33.7,30.02,SE,124,0.0,0.0,97,0.00,,,0.06,Wunderground v.1.15,2013-12-14 09:36:00,
2013-12-14 04:37:00,34.5,33.7,30.02,SE,124,0.0,0.0,97,0.00,,,0.06,Wunderground v.1.15,2013-12-14 09:37:00,
2013-12-14 04:40:00,34.5,33.7,30.02,SE,124,0.0,0.0,97,0.00,,,0.06,Wunderground v.1.15,2013-12-14 09:40:00,
2013-12-14 04:42:00,34.3,33.5,30.02,SE,124,0.0,1.0,97,0.00,,,0.06,Wunderground v.1.15,2013-12-14 09:42:00,
2013-12-14 04:45:00,34.3,33.5,30.01,ESE,117,0.0,1.0,97,0.00,,,0.07,Wunderground v.1.15,2013-12-14 09:45:00,
2013-12-14 04:46:00,34.3,33.5,30.01,ESE,117,0.0,2.0,97,0.00,,,0.07,Wunderground v.1.15,2013-12-14 09:46:00,
2013-12-14 04:47:00,34.3,33.5,30.01,ESE,116,1.0,2.0,97,0.00,,,0.07,Wunderground v.1.15,2013-12-14 09:47:00,
2013-12-14 04:48:00,34.3,33.5,30.01,ESE,106,1.0,2.0,97,0.00,,,0.07,Wunderground v.1.15,2013-12-14 09:48:00,
2013-12-14 04:50:00,34.3,33.5,30.01,ESE,106,1.0,2.0,97,0.00,,,0.07,Wunderground v.1.15,2013-12-14 09:50:00,
2013-12-14 04:52:00,34.3,33.5,30.01,East,100,2.0,3.0,97,0.00,,,0.07,Wunderground v.1.15,2013-12-14 09:52:00,
2013-12-14 04:53:00,34.3,33.5,30.01,ESE,103,2.0,5.0,97,0.00,,,0.07,Wunderground v.1.15,2013-12-14 09:53:00,
2013-12-14 04:54:00,34.5,33.7,30.01,ESE,103,2.0,5.0,97,0.00,,,0.07,Wunderground v.1.15,2013-12-14 09:54:00,
2013-12-14 04:56:00,34.5,33.7,30.01,ESE,106,3.0,5.0,97,0.05,,,0.08,Wunderground v.1.15,2013-12-14 09:56:00,
2013-12-14 04:57:00,34.5,33.7,30.01,ESE,106,3.0,5.0,97,0.05,,,0.08,Wunderground v.1.15,2013-12-14 09:57:00,
2013-12-14 04:59:00,34.5,33.7,30.01,ESE,106,3.0,5.0,97,0.05,,,0.08,Wunderground v.1.15,2013-12-14 09:59:00,
2013-12-14 05:01:00,34.5,33.7,30.00,SE,128,3.0,3.0,97,0.05,,,0.08,Wunderground v.1.15,2013-12-14 10:01:00,
2013-12-14 05:02:00,34.5,33.7,30.00,ESE,104,3.0,3.0,97,0.05,,,0.08,Wunderground v.1.15,2013-12-14 10:02:00,
2013-12-14 05:05:00,34.5,33.7,30.00,ESE,110,3.0,4.0,97,0.05,,,0.08,Wunderground v.1.15,2013-12-14 10:05:00,
2013-12-14 05:07:00,34.3,33.5,30.00,ESE,110,3.0,4.0,97,0.05,,,0.08,Wunderground v.1.15,2013-12-14 10:07:00,
2013-12-14 05:08:00,34.3,33.5,30.00,ESE,110,3.0,4.0,97,0.05,,,0.08,Wunderground v.1.15,2013-12-14 10:08:00,
2013-12-14 05:09:00,34.3,33.5,30.00,ESE,110,3.0,4.0,97,0.04,,,0.08,Wunderground v.1.15,2013-12-14 10:09:00,
2013-12-14 05:10:00,34.3,33.5,30.00,ESE,110,2.0,2.0,97,0.04,,,0.08,Wunderground v.1.15,2013-12-14 10:10:00,
2013-12-14 05:12:00,34.2,33.4,30.00,ESE,110,2.0,2.0,97,0.04,,,0.08,Wunderground v.1.15,2013-12-14 10:12:00,
2013-12-14 05:13:00,34.2,33.4,30.00,ESE,110,2.0,2.0,97,0.00,,,0.08,Wunderground v.1.15,2013-12-14 10:13:00,
2013-12-14 05:14:00,34.2,33.4,30.00,ESE,110,2.0,2.0,97,0.00,,,0.08,Wunderground v.1.15,2013-12-14 10:14:00,
2013-12-14 05:17:00,34.0,33.2,29.99,East,85,2.0,5.0,97,0.00,,,0.08,Wunderground v.1.15,2013-12-14 10:17:00,
2013-12-14 05:18:00,34.0,33.2,29.99,East,90,2.0,5.0,97,0.00,,,0.09,Wunderground v.1.15,2013-12-14 10:18:00,
2013-12-14 05:19:00,33.9,33.1,29.99,East,86,2.0,5.0,97,0.00,,,0.09,Wunderground v.1.15,2013-12-14 10:19:00,
2013-12-14 05:21:00,33.9,33.1,29.99,East,80,3.0,7.0,97,0.00,,,0.09,Wunderground v.1.15,2013-12-14 10:21:00,
2013-12-14 05:22:00,33.9,33.1,29.99,East,85,4.0,8.0,97,0.00,,,0.09,Wunderground v.1.15,2013-12-14 10:22:00,
2013-12-14 05:24:00,33.9,33.1,29.99,East,85,4.0,8.0,97,0.00,,,0.09,Wunderground v.1.15,2013-12-14 10:24:00,
2013-12-14 05:26:00,33.9,33.1,29.99,ESE,109,5.0,8.0,97,0.00,,,0.09,Wunderground v.1.15,2013-12-14 10:26:00,
2013-12-14 05:27:00,33.7,33.2,29.99,ESE,106,5.0,8.0,98,0.00,,,0.09,Wunderground v.1.15,2013-12-14 10:27:00,
2013-12-14 05:28:00,33.7,33.2,29.99,ESE,106,4.0,8.0,98,0.00,,,0.09,Wunderground v.1.15,2013-12-14 10:28:00,
2013-12-14 05:31:00,33.7,33.2,29.98,ESE,106,3.0,4.0,98,0.00,,,0.09,Wunderground v.1.15,2013-12-14 10:31:00,
2013-12-14 05:32:00,33.6,33.1,29.98,ESE,106,3.0,4.0,98,0.00,,,0.09,Wunderground v.1.15,2013-12-14 10:32:00,
2013-12-14 05:33:00,33.6,32.8,29.98,ESE,106,3.0,4.0,97,0.00,,,0.09,Wunderground v.1.15,2013-12-14 10:33:00,
2013-12-14 05:34:00,33.6,32.8,29.98,ESE,106,2.0,4.0,97,0.00,,,0.09,Wunderground v.1.15,2013-12-14 10:34:00,
2013-12-14 05:37:00,33.6,33.1,29.98,ESE,106,2.0,4.0,98,0.00,,,0.10,Wunderground v.1.15,2013-12-14 10:37:00,
2013-12-14 05:38:00,33.6,33.1,29.98,East,99,2.0,4.0,98,0.00,,,0.10,Wunderground v.1.15,2013-12-14 10:38:00,
2013-12-14 05:40:00,33.4,32.9,29.98,East,100,2.0,2.0,98,0.00,,,0.10,Wunderground v.1.15,2013-12-14 10:40:00,
2013-12-14 05:42:00,33.4,32.9,29.98,ESE,107,2.0,3.0,98,0.00,,,0.10,Wunderground v.1.15,2013-12-14 10:42:00,
2013-12-14 05:44:00,33.4,32.9,29.98,East,97,2.0,5.0,98,0.00,,,0.10,Wunderground v.1.15,2013-12-14 10:44:00,
2013-12-14 05:45:00,33.4,32.9,29.97,ESE,116,3.0,5.0,98,0.00,,,0.10,Wunderground v.1.15,2013-12-14 10:45:00,
2013-12-14 05:46:00,33.4,32.9,29.97,East,100,3.0,5.0,98,0.00,,,0.10,Wunderground v.1.15,2013-12-14 10:46:00,
2013-12-14 05:48:00,33.4,32.9,29.97,ESE,110,3.0,5.0,98,0.00,,,0.10,Wunderground v.1.15,2013-12-14 10:48:00,
2013-12-14 05:49:00,33.4,32.9,29.97,ESE,110,3.0,5.0,98,0.00,,,0.10,Wunderground v.1.15,2013-12-14 10:49:00,
2013-12-14 05:50:00,33.4,32.9,29.97,East,100,3.0,6.0,98,0.00,,,0.10,Wunderground v.1.15,2013-12-14 10:50:00,
2013-12-14 05:52:00,33.4,32.9,29.97,ESE,103,4.0,6.0,98,0.00,,,0.10,Wunderground v.1.15,2013-12-14 10:52:00,
2013-12-14 05:53:00,33.4,32.9,29.97,ESE,102,4.0,6.0,98,0.00,,,0.10,Wunderground v.1.15,2013-12-14 10:53:00,
2013-12-14 05:54:00,33.4,32.9,29.97,ESE,110,4.0,6.0,98,0.00,,,0.10,Wunderground v.1.15,2013-12-14 10:54:00,
2013-12-14 05:55:00,33.4,32.9,29.97,ESE,103,4.0,6.0,98,0.00,,,0.10,Wunderground v.1.15,2013-12-14 10:55:00,
2013-12-14 05:56:00,33.4,32.9,29.97,ESE,109,4.0,6.0,98,0.00,,,0.10,Wunderground v.1.15,2013-12-14 10:56:00,
2013-12-14 05:57:00,33.3,32.8,29.97,ESE,109,4.0,6.0,98,0.00,,,0.10,Wunderground v.1.15,2013-12-14 10:57:00,
2013-12-14 05:58:00,33.3,32.8,29.97,ESE,103,4.0,6.0,98,0.00,,,0.10,Wunderground v.1.15,2013-12-14 10:58:00,
2013-12-14 06:01:00,33.3,32.8,29.95,ESE,102,4.0,4.0,98,0.00,,,0.10,Wunderground v.1.15,2013-12-14 11:01:00,
2013-12-14 06:03:00,33.3,32.8,29.95,East,99,3.0,4.0,98,0.00,,,0.10,Wunderground v.1.15,2013-12-14 11:03:00,
2013-12-14 06:04:00,33.3,32.8,29.95,ESE,109,3.0,4.0,98,0.00,,,0.10,Wunderground v.1.15,2013-12-14 11:04:00,
2013-12-14 06:06:00,33.3,32.8,29.95,ESE,106,3.0,4.0,98,0.00,,,0.11,Wunderground v.1.15,2013-12-14 11:06:00,
2013-12-14 06:07:00,33.3,32.8,29.95,ESE,117,3.0,5.0,98,0.00,,,0.11,Wunderground v.1.15,2013-12-14 11:07:00,
2013-12-14 06:08:00,33.4,32.9,29.95,ESE,110,3.0,5.0,98,0.00,,,0.11,Wunderground v.1.15,2013-12-14 11:08:00,
2013-12-14 06:09:00,33.4,32.9,29.95,ESE,110,3.0,5.0,98,0.00,,,0.11,Wunderground v.1.15,2013-12-14 11:09:00,
2013-12-14 06:10:00,33.4,32.9,29.95,ESE,110,3.0,3.0,98,0.00,,,0.11,Wunderground v.1.15,2013-12-14 11:10:00,
2013-12-14 06:11:00,33.4,32.9,29.95,ESE,104,3.0,3.0,98,0.00,,,0.11,Wunderground v.1.15,2013-12-14 11:11:00,
2013-12-14 06:16:00,33.4,32.9,29.95,ESE,117,3.0,3.0,98,0.00,,,0.11,Wunderground v.1.15,2013-12-14 11:16:00,
2013-12-14 06:17:00,33.4,32.9,29.95,ESE,104,3.0,3.0,98,0.00,,,0.11,Wunderground v.1.15,2013-12-14 11:17:00,
2013-12-14 06:21:00,33.6,33.1,29.95,ESE,112,3.0,3.0,98,0.00,,,0.11,Wunderground v.1.15,2013-12-14 11:21:00,
2013-12-14 06:23:00,33.4,32.9,29.95,ESE,102,3.0,3.0,98,0.00,,,0.11,Wunderground v.1.15,2013-12-14 11:23:00,
2013-12-14 06:24:00,33.6,33.1,29.95,ESE,113,3.0,3.0,98,0.00,,,0.11,Wunderground v.1.15,2013-12-14 11:24:00,
2013-12-14 06:28:00,33.4,32.9,29.95,ESE,107,3.0,3.0,98,0.00,,,0.11,Wunderground v.1.15,2013-12-14 11:28:00,
2013-12-14 06:29:00,33.4,32.9,29.95,ESE,107,3.0,3.0,98,0.00,,,0.11,Wunderground v.1.15,2013-12-14 11:29:00,
2013-12-14 06:34:00,33.6,33.1,29.95,ESE,119,3.0,6.0,98,0.00,,,0.12,Wunderground v.1.15,2013-12-14 11:34:00,
2013-12-14 06:35:00,33.6,33.1,29.95,ESE,109,3.0,6.0,98,0.00,,,0.12,Wunderground v.1.15,2013-12-14 11:35:00,
2013-12-14 06:36:00,33.4,32.9,29.95,ESE,107,3.0,6.0,98,0.00,,,0.12,Wunderground v.1.15,2013-12-14 11:36:00,
2013-12-14 06:37:00,33.4,32.9,29.95,ESE,112,3.0,6.0,98,0.00,,,0.12,Wunderground v.1.15,2013-12-14 11:37:00,
2013-12-14 06:40:00,33.4,32.9,29.95,East,96,3.0,3.0,98,0.00,,,0.12,Wunderground v.1.15,2013-12-14 11:40:00,
2013-12-14 06:43:00,33.4,32.9,29.95,ESE,109,3.0,4.0,98,0.00,,,0.12,Wunderground v.1.15,2013-12-14 11:43:00,
2013-12-14 06:44:00,33.4,32.9,29.95,East,88,3.0,5.0,98,0.00,,,0.12,Wunderground v.1.15,2013-12-14 11:44:00,
2013-12-14 06:46:00,33.6,33.1,29.93,East,82,4.0,5.0,98,0.00,,,0.12,Wunderground v.1.15,2013-12-14 11:46:00,
2013-12-14 06:47:00,33.6,33.1,29.93,ESE,102,4.0,5.0,98,0.00,,,0.12,Wunderground v.1.15,2013-12-14 11:47:00,
2013-12-14 06:48:00,33.6,33.1,29.93,East,100,4.0,5.0,98,0.00,,,0.12,Wunderground v.1.15,2013-12-14 11:48:00,
2013-12-14 06:49:00,33.6,33.1,29.93,ESE,103,4.0,5.0,98,0.00,,,0.12,Wunderground v.1.15,2013-12-14 11:49:00,
2013-12-14 06:53:00,33.6,33.1,29.93,East,100,4.0,5.0,98,0.00,,,0.12,Wunderground v.1.15,2013-12-14 11:53:00,
2013-12-14 06:56:00,33.6,33.1,29.93,ESE,106,4.0,6.0,98,0.00,,,0.13,Wunderground v.1.15,2013-12-14 11:56:00,
2013-12-14 06:57:00,33.6,33.1,29.93,ESE,106,4.0,6.0,98,0.00,,,0.13,Wunderground v.1.15,2013-12-14 11:57:00,
2013-12-14 06:58:00,33.6,33.1,29.93,ESE,107,4.0,6.0,98,0.00,,,0.13,Wunderground v.1.15,2013-12-14 11:58:00,
2013-12-14 07:00:00,33.6,33.1,29.93,ESE,102,4.0,4.0,98,0.00,,,0.13,Wunderground v.1.15,2013-12-14 12:00:00,
2013-12-14 07:02:00,33.6,33.1,29.93,East,90,4.0,5.0,98,0.00,,,0.13,Wunderground v.1.15,2013-12-14 12:02:00,
2013-12-14 07:05:00,33.4,32.9,29.93,ESE,102,4.0,5.0,98,0.00,,,0.13,Wunderground v.1.15,2013-12-14 12:05:00,
2013-12-14 07:06:00,33.4,32.9,29.93,East,99,4.0,5.0,98,0.00,,,0.13,Wunderground v.1.15,2013-12-14 12:06:00,
2013-12-14 07:07:00,33.4,32.9,29.93,East,100,4.0,5.0,98,0.00,,,0.13,Wunderground v.1.15,2013-12-14 12:07:00,
2013-12-14 07:09:00,33.4,32.9,29.93,East,89,4.0,5.0,98,0.04,,,0.14,Wunderground v.1.15,2013-12-14 12:09:00,
2013-12-14 07:11:00,33.4,32.9,29.93,East,99,4.0,4.0,98,0.04,,,0.14,Wunderground v.1.15,2013-12-14 12:11:00,
2013-12-14 07:12:00,33.4,32.9,29.93,ESE,102,4.0,5.0,98,0.04,,,0.14,Wunderground v.1.15,2013-12-14 12:12:00,
2013-12-14 07:17:00,33.4,32.9,29.94,ESE,106,3.0,5.0,98,0.04,,,0.14,Wunderground v.1.15,2013-12-14 12:17:00,
2013-12-14 07:18:00,33.4,32.9,29.94,ESE,106,3.0,5.0,98,0.04,,,0.14,Wunderground v.1.15,2013-12-14 12:18:00,
2013-12-14 07:19:00,33.4,32.9,29.94,ESE,104,3.0,5.0,98,0.06,,,0.15,Wunderground v.1.15,2013-12-14 12:19:00,
2013-12-14 07:20:00,33.4,32.9,29.94,ESE,102,3.0,3.0,98,0.06,,,0.15,Wunderground v.1.15,2013-12-14 12:20:00,
2013-12-14 07:21:00,33.4,32.9,29.94,ESE,102,3.0,3.0,98,0.06,,,0.15,Wunderground v.1.15,2013-12-14 12:21:00,
2013-12-14 07:23:00,33.4,32.9,29.94,East,97,3.0,3.0,98,0.06,,,0.15,Wunderground v.1.15,2013-12-14 12:23:00,
2013-12-14 07:24:00,33.4,32.9,29.94,ESE,106,2.0,3.0,98,0.06,,,0.15,Wunderground v.1.15,2013-12-14 12:24:00,
2013-12-14 07:26:00,33.4,32.9,29.94,East,99,2.0,3.0,98,0.09,,,0.16,Wunderground v.1.15,2013-12-14 12:26:00,
2013-12-14 07:28:00,33.4,32.9,29.94,East,92,2.0,3.0,98,0.09,,,0.16,Wunderground v.1.15,2013-12-14 12:28:00,
2013-12-14 07:30:00,33.4,32.9,29.91,East,90,2.0,5.0,98,0.09,,,0.16,Wunderground v.1.15,2013-12-14 12:30:00,
2013-12-14 07:31:00,33.4,32.9,29.91,ENE,75,2.0,5.0,98,0.09,,,0.16,Wunderground v.1.15,2013-12-14 12:31:00,
2013-12-14 07:32:00,33.4,32.9,29.91,ENE,78,2.0,5.0,98,0.08,,,0.16,Wunderground v.1.15,2013-12-14 12:32:00,
2013-12-14 07:33:00,33.4,32.9,29.91,East,85,3.0,5.0,98,0.08,,,0.17,Wunderground v.1.15,2013-12-14 12:33:00,
2013-12-14 07:35:00,33.4,32.9,29.91,ENE,68,3.0,5.0,98,0.08,,,0.17,Wunderground v.1.15,2013-12-14 12:35:00,
2013-12-14 07:38:00,33.4,32.9,29.91,East,99,3.0,5.0,98,0.08,,,0.17,Wunderground v.1.15,2013-12-14 12:38:00,
2013-12-14 07:39:00,33.4,32.9,29.91,East,83,3.0,5.0,98,0.08,,,0.17,Wunderground v.1.15,2013-12-14 12:39:00,
2013-12-14 07:40:00,33.4,32.9,29.91,East,79,3.0,3.0,98,0.08,,,0.17,Wunderground v.1.15,2013-12-14 12:40:00,
2013-12-14 07:43:00,33.4,32.9,29.91,East,100,3.0,5.0,98,0.06,,,0.18,Wunderground v.1.15,2013-12-14 12:43:00,
2013-12-14 07:45:00,33.4,32.9,29.90,East,88,3.0,5.0,98,0.06,,,0.18,Wunderground v.1.15,2013-12-14 12:45:00,
2013-12-14 07:46:00,33.4,32.9,29.90,East,97,3.0,5.0,98,0.06,,,0.18,Wunderground v.1.15,2013-12-14 12:46:00,
2013-12-14 07:48:00,33.4,32.9,29.90,East,99,3.0,5.0,98,0.06,,,0.18,Wunderground v.1.15,2013-12-14 12:48:00,
2013-12-14 07:49:00,33.4,32.9,29.90,East,85,3.0,5.0,98,0.06,,,0.18,Wunderground v.1.15,2013-12-14 12:49:00,
2013-12-14 07:51:00,33.6,33.1,29.90,East,90,3.0,4.0,98,0.06,,,0.18,Wunderground v.1.15,2013-12-14 12:51:00,
2013-12-14 07:53:00,33.6,33.3,29.90,ESE,107,3.0,4.0,99,0.06,,,0.19,Wunderground v.1.15,2013-12-14 12:53:00,
2013-12-14 07:55:00,33.6,33.3,29.90,ESE,109,3.0,7.0,99,0.06,,,0.19,Wunderground v.1.15,2013-12-14 12:55:00,
2013-12-14 07:58:00,33.7,33.4,29.90,ESE,106,4.0,7.0,99,0.06,,,0.19,Wunderground v.1.15,2013-12-14 12:58:00,
2013-12-14 07:59:00,33.7,33.4,29.90,ESE,104,4.0,7.0,99,0.06,,,0.19,Wunderground v.1.15,2013-12-14 12:59:00,
2013-12-14 08:03:00,33.7,33.2,29.90,ESE,109,4.0,5.0,98,0.08,,,0.20,Wunderground v.1.15,2013-12-14 13:03:00,
2013-12-14 08:04:00,33.7,33.2,29.90,ESE,107,4.0,5.0,98,0.08,,,0.20,Wunderground v.1.15,2013-12-14 13:04:00,
2013-12-14 08:05:00,33.7,33.4,29.90,ESE,106,4.0,5.0,99,0.08,,,0.20,Wunderground v.1.15,2013-12-14 13:05:00,
2013-12-14 08:07:00,33.7,33.4,29.90,ESE,107,4.0,5.0,99,0.11,,,0.21,Wunderground v.1.15,2013-12-14 13:07:00,
2013-12-14 08:08:00,33.7,33.4,29.90,ESE,110,3.0,5.0,99,0.11,,,0.21,Wunderground v.1.15,2013-12-14 13:08:00,
2013-12-14 08:09:00,33.7,33.4,29.90,ESE,109,4.0,6.0,99,0.11,,,0.21,Wunderground v.1.15,2013-12-14 13:09:00,
2013-12-14 08:10:00,33.7,33.4,29.90,East,97,4.0,5.0,99,0.14,,,0.22,Wunderground v.1.15,2013-12-14 13:10:00,
2013-12-14 08:11:00,33.9,33.6,29.90,ESE,106,4.0,6.0,99,0.14,,,0.22,Wunderground v.1.15,2013-12-14 13:11:00,
2013-12-14 08:12:00,33.9,33.6,29.90,ESE,102,4.0,6.0,99,0.14,,,0.22,Wunderground v.1.15,2013-12-14 13:12:00,
2013-12-14 08:14:00,33.9,33.6,29.90,East,97,4.0,6.0,99,0.15,,,0.23,Wunderground v.1.15,2013-12-14 13:14:00,
2013-12-14 08:17:00,33.9,33.6,29.89,East,95,4.0,6.0,99,0.15,,,0.23,Wunderground v.1.15,2013-12-14 13:17:00,
2013-12-14 08:19:00,33.9,33.6,29.89,East,95,4.0,6.0,99,0.13,,,0.24,Wunderground v.1.15,2013-12-14 13:19:00,
2013-12-14 08:20:00,33.9,33.6,29.89,East,100,4.0,7.0,99,0.13,,,0.24,Wunderground v.1.15,2013-12-14 13:20:00,
2013-12-14 08:21:00,33.9,33.6,29.89,East,97,4.0,7.0,99,0.13,,,0.24,Wunderground v.1.15,2013-12-14 13:21:00,
2013-12-14 08:25:00,33.9,33.6,29.89,East,100,4.0,7.0,99,0.10,,,0.25,Wunderground v.1.15,2013-12-14 13:25:00,
2013-12-14 08:26:00,34.0,33.7,29.89,East,85,4.0,7.0,99,0.10,,,0.25,Wunderground v.1.15,2013-12-14 13:26:00,
2013-12-14 08:30:00,34.0,33.7,29.88,ESE,110,4.0,4.0,99,0.10,,,0.25,Wunderground v.1.15,2013-12-14 13:30:00,
2013-12-14 08:31:00,34.0,33.7,29.88,ESE,109,4.0,4.0,99,0.09,,,0.25,Wunderground v.1.15,2013-12-14 13:31:00,
2013-12-14 08:35:00,34.0,33.7,29.88,ESE,112,3.0,5.0,99,0.06,,,0.25,Wunderground v.1.15,2013-12-14 13:35:00,
2013-12-14 08:36:00,34.2,33.9,29.88,ESE,114,3.0,5.0,99,0.06,,,0.26,Wunderground v.1.15,2013-12-14 13:36:00,
2013-12-14 08:37:00,34.2,33.9,29.88,ESE,114,3.0,5.0,99,0.06,,,0.26,Wunderground v.1.15,2013-12-14 13:37:00,
2013-12-14 08:39:00,34.2,33.9,29.88,ESE,119,4.0,7.0,99,0.06,,,0.26,Wunderground v.1.15,2013-12-14 13:39:00,
2013-12-14 08:40:00,34.3,34.0,29.88,ESE,109,4.0,4.0,99,0.13,,,0.27,Wunderground v.1.15,2013-12-14 13:40:00,
2013-12-14 08:41:00,34.3,34.0,29.88,ESE,106,4.0,4.0,99,0.13,,,0.27,Wunderground v.1.15,2013-12-14 13:41:00,
2013-12-14 08:45:00,34.3,34.0,29.88,ESE,103,5.0,6.0,99,0.17,,,0.28,Wunderground v.1.15,2013-12-14 13:45:00,
2013-12-14 08:46:00,34.3,34.0,29.88,East,88,4.0,6.0,99,0.17,,,0.28,Wunderground v.1.15,2013-12-14 13:46:00,
2013-12-14 08:48:00,34.3,34.0,29.88,East,88,4.0,6.0,99,0.13,,,0.28,Wunderground v.1.15,2013-12-14 13:48:00,
2013-12-14 08:49:00,34.3,34.0,29.88,East,92,4.0,6.0,99,0.13,,,0.29,Wunderground v.1.15,2013-12-14 13:49:00,
2013-12-14 08:51:00,34.3,34.0,29.88,East,96,3.0,4.0,99,0.13,,,0.29,Wunderground v.1.15,2013-12-14 13:51:00,
2013-12-14 08:53:00,34.3,34.0,29.88,East,96,3.0,4.0,99,0.12,,,0.29,Wunderground v.1.15,2013-12-14 13:53:00,
2013-12-14 08:56:00,34.3,34.0,29.88,East,96,2.0,4.0,99,0.10,,,0.30,Wunderground v.1.15,2013-12-14 13:56:00,
2013-12-14 08:57:00,34.3,34.0,29.88,East,96,1.0,4.0,99,0.10,,,0.30,Wunderground v.1.15,2013-12-14 13:57:00,
2013-12-14 08:59:00,34.3,34.0,29.88,East,96,1.0,4.0,99,0.10,,,0.30,Wunderground v.1.15,2013-12-14 13:59:00,
2013-12-14 09:00:00,34.3,34.0,29.88,East,96,1.0,1.0,99,0.11,,,0.31,Wunderground v.1.15,2013-12-14 14:00:00,
2013-12-14 09:04:00,34.3,34.0,29.88,East,96,0.0,1.0,99,0.11,,,0.31,Wunderground v.1.15,2013-12-14 14:04:00,
2013-12-14 09:05:00,34.3,34.0,29.88,East,96,0.0,1.0,99,0.11,,,0.31,Wunderground v.1.15,2013-12-14 14:05:00,
2013-12-14 09:06:00,34.3,34.0,29.88,East,96,0.0,1.0,99,0.09,,,0.31,Wunderground v.1.15,2013-12-14 14:06:00,
2013-12-14 09:07:00,34.3,34.0,29.88,East,96,0.0,1.0,99,0.08,,,0.31,Wunderground v.1.15,2013-12-14 14:07:00,
2013-12-14 09:09:00,34.3,34.0,29.88,East,96,0.0,1.0,99,0.07,,,0.32,Wunderground v.1.15,2013-12-14 14:09:00,
2013-12-14 09:11:00,34.3,34.0,29.88,East,96,0.0,0.0,99,0.27,,,0.33,Wunderground v.1.15,2013-12-14 14:11:00,
2013-12-14 09:12:00,34.3,34.0,29.88,East,96,0.0,0.0,99,0.27,,,0.33,Wunderground v.1.15,2013-12-14 14:12:00,
2013-12-14 09:13:00,34.3,34.0,29.88,East,96,0.0,0.0,99,0.21,,,0.33,Wunderground v.1.15,2013-12-14 14:13:00,
2013-12-14 09:14:00,34.3,34.0,29.88,East,96,0.0,0.0,99,0.15,,,0.33,Wunderground v.1.15,2013-12-14 14:14:00,
2013-12-14 09:16:00,34.3,34.0,29.88,East,96,0.0,0.0,99,0.14,,,0.34,Wunderground v.1.15,2013-12-14 14:16:00,
2013-12-14 09:18:00,34.3,34.0,29.88,East,96,0.0,0.0,99,0.14,,,0.34,Wunderground v.1.15,2013-12-14 14:18:00,
2013-12-14 09:20:00,34.3,34.0,29.88,East,96,0.0,0.0,99,0.10,,,0.34,Wunderground v.1.15,2013-12-14 14:20:00,
2013-12-14 09:21:00,34.3,34.0,29.88,East,96,0.0,0.0,99,0.09,,,0.35,Wunderground v.1.15,2013-12-14 14:21:00,
2013-12-14 09:24:00,34.2,33.9,29.88,East,90,1.0,4.0,99,0.24,,,0.36,Wunderground v.1.15,2013-12-14 14:24:00,
2013-12-14 09:25:00,34.2,33.9,29.88,East,86,1.0,4.0,99,0.24,,,0.36,Wunderground v.1.15,2013-12-14 14:25:00,
2013-12-14 09:28:00,34.3,34.0,29.88,East,100,2.0,5.0,99,0.16,,,0.37,Wunderground v.1.15,2013-12-14 14:28:00,
2013-12-14 09:29:00,34.3,34.0,29.88,East,89,2.0,6.0,99,0.16,,,0.37,Wunderground v.1.15,2013-12-14 14:29:00,
2013-12-14 09:30:00,34.3,34.0,29.86,East,89,3.0,5.0,99,0.16,,,0.37,Wunderground v.1.15,2013-12-14 14:30:00,
2013-12-14 09:33:00,34.3,34.0,29.86,ESE,109,3.0,5.0,99,0.10,,,0.37,Wunderground v.1.15,2013-12-14 14:33:00,
2013-12-14 09:35:00,34.3,34.0,29.86,ESE,109,3.0,5.0,99,0.08,,,0.37,Wunderground v.1.15,2013-12-14 14:35:00,
2013-12-14 09:36:00,34.3,34.0,29.86,ESE,109,2.0,5.0,99,0.07,,,0.37,Wunderground v.1.15,2013-12-14 14:36:00,
2013-12-14 09:37:00,34.3,34.0,29.86,ESE,109,2.0,5.0,99,0.06,,,0.37,Wunderground v.1.15,2013-12-14 14:37:00,
2013-12-14 09:40:00,34.3,34.0,29.86,ESE,109,1.0,1.0,99,0.06,,,0.38,Wunderground v.1.15,2013-12-14 14:40:00,
2013-12-14 09:41:00,34.3,34.0,29.86,ESE,109,1.0,1.0,99,0.06,,,0.38,Wunderground v.1.15,2013-12-14 14:41:00,
2013-12-14 09:44:00,34.5,34.2,29.86,ESE,109,0.0,1.0,99,0.09,,,0.38,Wunderground v.1.15,2013-12-14 14:44:00,
2013-12-14 09:45:00,34.5,34.2,29.87,ESE,109,0.0,1.0,99,0.09,,,0.39,Wunderground v.1.15,2013-12-14 14:45:00,
2013-12-14 09:46:00,34.5,34.2,29.87,ESE,109,0.0,1.0,99,0.09,,,0.39,Wunderground v.1.15,2013-12-14 14:46:00,
2013-12-14 09:49:00,34.5,34.2,29.87,ESE,109,0.0,1.0,99,0.13,,,0.40,Wunderground v.1.15,2013-12-14 14:49:00,
2013-12-14 09:50:00,34.5,34.2,29.87,ESE,109,0.0,0.0,99,0.13,,,0.40,Wunderground v.1.15,2013-12-14 14:50:00,
2013-12-14 09:51:00,34.5,34.2,29.87,ESE,109,0.0,0.0,99,0.35,,,0.41,Wunderground v.1.15,2013-12-14 14:51:00,
2013-12-14 09:52:00,34.5,34.2,29.87,ESE,109,0.0,0.0,99,0.35,,,0.41,Wunderground v.1.15,2013-12-14 14:52:00,
2013-12-14 09:54:00,34.5,34.2,29.87,ESE,109,0.0,0.0,99,0.18,,,0.41,Wunderground v.1.15,2013-12-14 14:54:00,
2013-12-14 09:55:00,34.5,34.2,29.87,ESE,109,0.0,0.0,99,0.16,,,0.42,Wunderground v.1.15,2013-12-14 14:55:00,
2013-12-14 09:56:00,34.5,34.2,29.87,ESE,109,0.0,0.0,99,0.16,,,0.42,Wunderground v.1.15,2013-12-14 14:56:00,
2013-12-14 09:57:00,34.5,34.2,29.87,ESE,109,0.0,0.0,99,0.28,,,0.43,Wunderground v.1.15,2013-12-14 14:57:00,
2013-12-14 09:59:00,34.5,34.2,29.87,ESE,109,0.0,1.0,99,0.21,,,0.43,Wunderground v.1.15,2013-12-14 14:59:00,
2013-12-14 10:00:00,34.5,34.2,29.86,ESE,107,0.0,3.0,99,0.15,,,0.44,Wunderground v.1.15,2013-12-14 15:00:00,
2013-12-14 10:02:00,34.6,34.3,29.86,East,96,1.0,3.0,99,0.15,,,0.44,Wunderground v.1.15,2013-12-14 15:02:00,
2013-12-14 10:04:00,34.6,34.3,29.86,East,96,1.0,3.0,99,0.29,,,0.45,Wunderground v.1.15,2013-12-14 15:04:00,
2013-12-14 10:05:00,34.6,34.3,29.86,East,96,1.0,3.0,99,0.22,,,0.45,Wunderground v.1.15,2013-12-14 15:05:00,
2013-12-14 10:09:00,34.6,34.3,29.86,East,96,1.0,3.0,99,0.15,,,0.46,Wunderground v.1.15,2013-12-14 15:09:00,
2013-12-14 10:10:00,34.6,34.3,29.86,East,96,1.0,1.0,99,0.15,,,0.46,Wunderground v.1.15,2013-12-14 15:10:00,
2013-12-14 10:12:00,34.6,34.3,29.86,East,96,1.0,1.0,99,0.11,,,0.46,Wunderground v.1.15,2013-12-14 15:12:00,
2013-12-14 10:13:00,34.6,34.3,29.86,East,96,0.0,1.0,99,0.11,,,0.47,Wunderground v.1.15,2013-12-14 15:13:00,
2013-12-14 10:14:00,34.6,34.3,29.86,East,96,0.0,1.0,99,0.11,,,0.47,Wunderground v.1.15,2013-12-14 15:14:00,
2013-12-14 10:19:00,34.6,34.3,29.86,East,96,0.0,1.0,99,0.08,,,0.47,Wunderground v.1.15,2013-12-14 15:19:00,
2013-12-14 10:20:00,34.6,34.3,29.86,East,96,0.0,0.0,99,0.07,,,0.47,Wunderground v.1.15,2013-12-14 15:20:00,
2013-12-14 10:22:00,34.8,34.5,29.86,East,96,0.0,0.0,99,0.06,,,0.47,Wunderground v.1.15,2013-12-14 15:22:00,
2013-12-14 10:23:00,34.8,34.5,29.86,East,96,0.0,0.0,99,0.05,,,0.47,Wunderground v.1.15,2013-12-14 15:23:00,
2013-12-14 10:25:00,34.8,34.5,29.86,East,96,0.0,0.0,99,0.05,,,0.47,Wunderground v.1.15,2013-12-14 15:25:00,
2013-12-14 10:26:00,34.8,34.5,29.86,East,96,0.0,0.0,99,0.05,,,0.47,Wunderground v.1.15,2013-12-14 15:26:00,
2013-12-14 10:27:00,34.8,34.5,29.86,East,96,0.0,0.0,99,0.05,,,0.47,Wunderground v.1.15,2013-12-14 15:27:00,
2013-12-14 10:29:00,34.8,34.5,29.86,East,96,0.0,0.0,99,0.05,,,0.47,Wunderground v.1.15,2013-12-14 15:29:00,
2013-12-14 10:30:00,34.8,34.5,29.86,East,96,0.0,0.0,99,0.05,,,0.47,Wunderground v.1.15,2013-12-14 15:30:00,
2013-12-14 10:33:00,34.9,34.6,29.86,East,96,0.0,0.0,99,0.05,,,0.47,Wunderground v.1.15,2013-12-14 15:33:00,
2013-12-14 10:34:00,34.9,34.6,29.86,East,96,0.0,0.0,99,0.05,,,0.47,Wunderground v.1.15,2013-12-14 15:34:00,
2013-12-14 10:35:00,34.9,34.6,29.86,East,96,0.0,0.0,99,0.05,,,0.47,Wunderground v.1.15,2013-12-14 15:35:00,
2013-12-14 10:36:00,34.9,34.6,29.86,East,96,0.0,0.0,99,0.05,,,0.47,Wunderground v.1.15,2013-12-14 15:36:00,
2013-12-14 10:38:00,35.1,34.8,29.86,East,96,0.0,0.0,99,0.04,,,0.47,Wunderground v.1.15,2013-12-14 15:38:00,
2013-12-14 10:39:00,35.1,34.8,29.86,East,96,0.0,0.0,99,0.04,,,0.47,Wunderground v.1.15,2013-12-14 15:39:00,
2013-12-14 10:40:00,35.1,34.8,29.86,East,96,0.0,0.0,99,0.04,,,0.47,Wunderground v.1.15,2013-12-14 15:40:00,
2013-12-14 10:42:00,35.2,34.9,29.86,East,96,0.0,0.0,99,0.00,,,0.47,Wunderground v.1.15,2013-12-14 15:42:00,
2013-12-14 10:45:00,35.2,34.9,29.85,East,96,0.0,0.0,99,0.00,,,0.48,Wunderground v.1.15,2013-12-14 15:45:00,
2013-12-14 10:46:00,35.2,34.9,29.85,East,96,0.0,0.0,99,0.00,,,0.48,Wunderground v.1.15,2013-12-14 15:46:00,
2013-12-14 10:47:00,35.2,34.9,29.85,East,96,0.0,0.0,99,0.00,,,0.48,Wunderground v.1.15,2013-12-14 15:47:00,
2013-12-14 10:51:00,35.4,35.1,29.85,East,96,0.0,0.0,99,0.00,,,0.48,Wunderground v.1.15,2013-12-14 15:51:00,
2013-12-14 10:52:00,35.4,35.1,29.85,East,96,0.0,0.0,99,0.00,,,0.48,Wunderground v.1.15,2013-12-14 15:52:00,
2013-12-14 10:53:00,35.4,35.1,29.85,East,96,0.0,0.0,99,0.00,,,0.48,Wunderground v.1.15,2013-12-14 15:53:00,
2013-12-14 10:55:00,35.4,35.1,29.85,East,96,0.0,0.0,99,0.00,,,0.48,Wunderground v.1.15,2013-12-14 15:55:00,
2013-12-14 10:56:00,35.4,35.1,29.85,East,96,0.0,0.0,99,0.00,,,0.48,Wunderground v.1.15,2013-12-14 15:56:00,
2013-12-14 11:00:00,35.4,35.1,29.85,East,96,0.0,0.0,99,0.00,,,0.48,Wunderground v.1.15,2013-12-14 16:00:00,
2013-12-14 11:01:00,35.4,35.1,29.85,East,96,0.0,0.0,99,0.00,,,0.48,Wunderground v.1.15,2013-12-14 16:01:00,
2013-12-14 11:04:00,35.4,35.1,29.85,East,96,0.0,0.0,99,0.00,,,0.48,Wunderground v.1.15,2013-12-14 16:04:00,
2013-12-14 11:05:00,35.5,35.2,29.85,East,96,0.0,0.0,99,0.00,,,0.48,Wunderground v.1.15,2013-12-14 16:05:00,
2013-12-14 11:09:00,35.5,35.2,29.85,East,96,0.0,0.0,99,0.00,,,0.48,Wunderground v.1.15,2013-12-14 16:09:00,
2013-12-14 11:10:00,35.5,35.2,29.85,East,96,0.0,0.0,99,0.00,,,0.48,Wunderground v.1.15,2013-12-14 16:10:00,
2013-12-14 11:12:00,35.5,35.2,29.85,East,96,0.0,0.0,99,0.00,,,0.48,Wunderground v.1.15,2013-12-14 16:12:00,
2013-12-14 11:13:00,35.5,35.2,29.85,East,96,0.0,0.0,99,0.00,,,0.48,Wunderground v.1.15,2013-12-14 16:13:00,
2013-12-14 11:17:00,35.5,35.2,29.83,East,96,0.0,0.0,99,0.00,,,0.48,Wunderground v.1.15,2013-12-14 16:17:00,
2013-12-14 11:18:00,35.5,35.2,29.83,East,96,0.0,0.0,99,0.00,,,0.48,Wunderground v.1.15,2013-12-14 16:18:00,
2013-12-14 11:21:00,35.4,35.1,29.83,East,96,0.0,0.0,99,0.00,,,0.48,Wunderground v.1.15,2013-12-14 16:21:00,
2013-12-14 11:23:00,35.5,35.2,29.83,East,96,0.0,0.0,99,0.00,,,0.48,Wunderground v.1.15,2013-12-14 16:23:00,
2013-12-14 11:25:00,35.5,35.2,29.83,East,96,0.0,0.0,99,0.00,,,0.48,Wunderground v.1.15,2013-12-14 16:25:00,
2013-12-14 11:26:00,35.5,35.2,29.83,East,96,0.0,0.0,99,0.00,,,0.48,Wunderground v.1.15,2013-12-14 16:26:00,
2013-12-14 11:29:00,35.5,35.2,29.83,East,96,0.0,0.0,99,0.00,,,0.48,Wunderground v.1.15,2013-12-14 16:29:00,
2013-12-14 11:31:00,35.5,35.2,29.82,East,96,0.0,0.0,99,0.00,,,0.48,Wunderground v.1.15,2013-12-14 16:31:00,
2013-12-14 11:32:00,35.5,35.2,29.82,East,96,0.0,0.0,99,0.00,,,0.48,Wunderground v.1.15,2013-12-14 16:32:00,
2013-12-14 11:33:00,35.5,35.2,29.82,East,96,0.0,0.0,99,0.00,,,0.48,Wunderground v.1.15,2013-12-14 16:33:00,
2013-12-14 11:35:00,35.5,35.2,29.82,East,96,0.0,0.0,99,0.00,,,0.48,Wunderground v.1.15,2013-12-14 16:35:00,
2013-12-14 11:36:00,35.5,35.2,29.82,East,96,0.0,0.0,99,0.00,,,0.48,Wunderground v.1.15,2013-12-14 16:36:00,
2013-12-14 11:37:00,35.5,35.2,29.82,East,96,0.0,0.0,99,0.00,,,0.48,Wunderground v.1.15,2013-12-14 16:37:00,
2013-12-14 11:38:00,35.5,35.2,29.82,East,96,0.0,0.0,99,0.00,,,0.48,Wunderground v.1.15,2013-12-14 16:38:00,
2013-12-14 11:39:00,35.5,35.2,29.82,East,96,0.0,0.0,99,0.00,,,0.48,Wunderground v.1.15,2013-12-14 16:39:00,
2013-12-14 11:41:00,35.5,35.2,29.82,East,96,0.0,0.0,99,0.00,,,0.48,Wunderground v.1.15,2013-12-14 16:41:00,
2013-12-14 11:42:00,35.5,35.2,29.82,East,96,0.0,0.0,99,0.00,,,0.48,Wunderground v.1.15,2013-12-14 16:42:00,
2013-12-14 11:43:00,35.5,35.2,29.82,East,96,0.0,0.0,99,0.00,,,0.48,Wunderground v.1.15,2013-12-14 16:43:00,
2013-12-14 11:44:00,35.7,35.4,29.82,East,96,0.0,0.0,99,0.00,,,0.48,Wunderground v.1.15,2013-12-14 16:44:00,
2013-12-14 11:45:00,35.7,35.4,29.81,East,96,0.0,0.0,99,0.00,,,0.48,Wunderground v.1.15,2013-12-14 16:45:00,
2013-12-14 11:48:00,35.7,35.4,29.81,East,96,0.0,0.0,99,0.00,,,0.48,Wunderground v.1.15,2013-12-14 16:48:00,
2013-12-14 11:49:00,35.7,35.4,29.81,East,96,0.0,0.0,99,0.00,,,0.48,Wunderground v.1.15,2013-12-14 16:49:00,
2013-12-14 11:50:00,35.7,35.4,29.81,East,96,0.0,0.0,99,0.00,,,0.48,Wunderground v.1.15,2013-12-14 16:50:00,
2013-12-14 11:51:00,35.7,35.4,29.81,East,96,0.0,0.0,99,0.00,,,0.48,Wunderground v.1.15,2013-12-14 16:51:00,
2013-12-14 11:52:00,35.7,35.4,29.81,East,96,0.0,0.0,99,0.00,,,0.48,Wunderground v.1.15,2013-12-14 16:52:00,
2013-12-14 11:55:00,35.8,35.5,29.81,East,96,0.0,0.0,99,0.00,,,0.48,Wunderground v.1.15,2013-12-14 16:55:00,
2013-12-14 11:57:00,35.8,35.5,29.81,East,96,0.0,0.0,99,0.00,,,0.48,Wunderground v.1.15,2013-12-14 16:57:00,
2013-12-14 11:59:00,35.8,35.5,29.81,East,96,0.0,0.0,99,0.00,,,0.48,Wunderground v.1.15,2013-12-14 16:59:00,
2013-12-14 12:00:00,35.8,35.5,29.80,East,96,0.0,0.0,99,0.00,,,0.48,Wunderground v.1.15,2013-12-14 17:00:00,
2013-12-14 12:02:00,35.8,35.5,29.80,East,96,0.0,0.0,99,0.00,,,0.48,Wunderground v.1.15,2013-12-14 17:02:00,
2013-12-14 12:03:00,35.8,35.5,29.80,East,96,0.0,0.0,99,0.00,,,0.48,Wunderground v.1.15,2013-12-14 17:03:00,
2013-12-14 12:05:00,35.8,35.5,29.80,East,96,0.0,0.0,99,0.00,,,0.48,Wunderground v.1.15,2013-12-14 17:05:00,
2013-12-14 12:06:00,35.8,35.5,29.80,East,96,0.0,0.0,99,0.00,,,0.48,Wunderground v.1.15,2013-12-14 17:06:00,
2013-12-14 12:07:00,35.8,35.5,29.80,East,96,0.0,0.0,99,0.00,,,0.48,Wunderground v.1.15,2013-12-14 17:07:00,
2013-12-14 12:11:00,36.0,36.0,29.80,East,96,0.0,0.0,100,0.00,,,0.48,Wunderground v.1.15,2013-12-14 17:11:00,
2013-12-14 12:12:00,36.0,36.0,29.80,East,96,0.0,0.0,100,0.00,,,0.48,Wunderground v.1.15,2013-12-14 17:12:00,
2013-12-14 12:13:00,36.0,36.0,29.80,East,96,0.0,0.0,100,0.00,,,0.48,Wunderground v.1.15,2013-12-14 17:13:00,
2013-12-14 12:16:00,36.0,36.0,29.79,East,96,0.0,0.0,100,0.00,,,0.48,Wunderground v.1.15,2013-12-14 17:16:00,
2013-12-14 12:17:00,36.1,36.1,29.79,East,96,0.0,0.0,100,0.00,,,0.48,Wunderground v.1.15,2013-12-14 17:17:00,
2013-12-14 12:18:00,36.1,36.1,29.79,East,96,0.0,0.0,100,0.00,,,0.48,Wunderground v.1.15,2013-12-14 17:18:00,
2013-12-14 12:19:00,36.1,36.1,29.79,East,96,0.0,0.0,100,0.00,,,0.48,Wunderground v.1.15,2013-12-14 17:19:00,
2013-12-14 12:20:00,36.1,36.1,29.79,ESE,110,0.0,0.0,100,0.00,,,0.48,Wunderground v.1.15,2013-12-14 17:20:00,
2013-12-14 12:24:00,36.3,36.3,29.79,ESE,110,0.0,0.0,100,0.00,,,0.48,Wunderground v.1.15,2013-12-14 17:24:00,
2013-12-14 12:25:00,36.3,36.3,29.79,ESE,110,0.0,0.0,100,0.00,,,0.48,Wunderground v.1.15,2013-12-14 17:25:00,
2013-12-14 12:27:00,36.3,36.3,29.79,ESE,110,0.0,0.0,100,0.00,,,0.48,Wunderground v.1.15,2013-12-14 17:27:00,
2013-12-14 12:29:00,36.3,36.3,29.79,ESE,110,0.0,0.0,100,0.00,,,0.48,Wunderground v.1.15,2013-12-14 17:29:00,
2013-12-14 12:31:00,36.3,36.3,29.78,ESE,110,0.0,0.0,100,0.00,,,0.48,Wunderground v.1.15,2013-12-14 17:31:00,
2013-12-14 12:32:00,36.3,36.3,29.78,ESE,110,0.0,0.0,100,0.00,,,0.48,Wunderground v.1.15,2013-12-14 17:32:00,
2013-12-14 12:36:00,36.3,36.3,29.78,ESE,110,0.0,0.0,100,0.00,,,0.48,Wunderground v.1.15,2013-12-14 17:36:00,
2013-12-14 12:37:00,36.3,36.3,29.78,ESE,110,0.0,0.0,100,0.00,,,0.48,Wunderground v.1.15,2013-12-14 17:37:00,
2013-12-14 12:38:00,36.3,36.3,29.78,ESE,110,0.0,0.0,100,0.00,,,0.48,Wunderground v.1.15,2013-12-14 17:38:00,
2013-12-14 12:42:00,36.3,36.3,29.78,ESE,110,0.0,0.0,100,0.00,,,0.48,Wunderground v.1.15,2013-12-14 17:42:00,
2013-12-14 12:43:00,36.3,36.3,29.78,ESE,110,0.0,0.0,100,0.00,,,0.48,Wunderground v.1.15,2013-12-14 17:43:00,
2013-12-14 12:44:00,36.3,36.3,29.78,ESE,110,0.0,0.0,100,0.00,,,0.48,Wunderground v.1.15,2013-12-14 17:44:00,
2013-12-14 12:46:00,36.3,36.3,29.78,ESE,110,0.0,0.0,100,0.00,,,0.48,Wunderground v.1.15,2013-12-14 17:46:00,
2013-12-14 12:48:00,36.3,36.3,29.78,ESE,110,0.0,0.0,100,0.00,,,0.48,Wunderground v.1.15,2013-12-14 17:48:00,
2013-12-14 12:51:00,36.3,36.3,29.78,ESE,110,0.0,0.0,100,0.00,,,0.48,Wunderground v.1.15,2013-12-14 17:51:00,
2013-12-14 12:52:00,36.3,36.3,29.78,ESE,110,0.0,0.0,100,0.00,,,0.48,Wunderground v.1.15,2013-12-14 17:52:00,
2013-12-14 12:54:00,36.3,36.3,29.78,ESE,110,0.0,0.0,100,0.00,,,0.48,Wunderground v.1.15,2013-12-14 17:54:00,
2013-12-14 12:58:00,36.4,36.4,29.78,ESE,110,0.0,0.0,100,0.00,,,0.48,Wunderground v.1.15,2013-12-14 17:58:00,
2013-12-14 12:59:00,36.4,36.4,29.78,ESE,110,0.0,0.0,100,0.00,,,0.48,Wunderground v.1.15,2013-12-14 17:59:00,
2013-12-14 13:03:00,36.4,36.4,29.77,ESE,110,0.0,0.0,100,0.00,,,0.48,Wunderground v.1.15,2013-12-14 18:03:00,
2013-12-14 13:04:00,36.4,36.4,29.77,ESE,110,0.0,0.0,100,0.00,,,0.48,Wunderground v.1.15,2013-12-14 18:04:00,
2013-12-14 13:06:00,36.4,36.4,29.77,ESE,110,0.0,0.0,100,0.00,,,0.48,Wunderground v.1.15,2013-12-14 18:06:00,
2013-12-14 13:09:00,36.5,36.5,29.77,ESE,110,0.0,0.0,100,0.00,,,0.48,Wunderground v.1.15,2013-12-14 18:09:00,
2013-12-14 13:10:00,36.5,36.5,29.77,ESE,110,0.0,0.0,100,0.00,,,0.48,Wunderground v.1.15,2013-12-14 18:10:00,
2013-12-14 13:11:00,36.5,36.5,29.77,ESE,110,0.0,0.0,100,0.00,,,0.48,Wunderground v.1.15,2013-12-14 18:11:00,
2013-12-14 13:12:00,36.5,36.5,29.77,ESE,110,0.0,0.0,100,0.00,,,0.48,Wunderground v.1.15,2013-12-14 18:12:00,
2013-12-14 13:13:00,36.5,36.5,29.77,ESE,110,0.0,0.0,100,0.00,,,0.48,Wunderground v.1.15,2013-12-14 18:13:00,
2013-12-14 13:16:00,36.5,36.5,29.76,ESE,110,0.0,0.0,100,0.00,,,0.48,Wunderground v.1.15,2013-12-14 18:16:00,
2013-12-14 13:17:00,36.5,36.5,29.76,ESE,110,0.0,0.0,100,0.00,,,0.48,Wunderground v.1.15,2013-12-14 18:17:00,
2013-12-14 13:19:00,36.5,36.5,29.76,ESE,110,0.0,0.0,100,0.00,,,0.48,Wunderground v.1.15,2013-12-14 18:19:00,
2013-12-14 13:20:00,36.5,36.5,29.76,ESE,110,0.0,0.0,100,0.00,,,0.48,Wunderground v.1.15,2013-12-14 18:20:00,
2013-12-14 13:21:00,36.5,36.5,29.76,ESE,110,0.0,0.0,100,0.00,,,0.48,Wunderground v.1.15,2013-12-14 18:21:00,
2013-12-14 13:25:00,36.7,36.7,29.76,ESE,110,0.0,0.0,100,0.00,,,0.48,Wunderground v.1.15,2013-12-14 18:25:00,
2013-12-14 13:27:00,36.7,36.7,29.76,ESE,110,0.0,0.0,100,0.00,,,0.48,Wunderground v.1.15,2013-12-14 18:27:00,
2013-12-14 13:28:00,36.7,36.7,29.76,ESE,110,0.0,0.0,100,0.00,,,0.48,Wunderground v.1.15,2013-12-14 18:28:00,
2013-12-14 13:30:00,36.8,36.8,29.75,ESE,110,0.0,0.0,100,0.00,,,0.48,Wunderground v.1.15,2013-12-14 18:30:00,
2013-12-14 13:32:00,36.8,36.8,29.75,ESE,110,0.0,0.0,100,0.00,,,0.48,Wunderground v.1.15,2013-12-14 18:32:00,
2013-12-14 13:35:00,36.8,36.8,29.75,ESE,110,0.0,0.0,100,0.00,,,0.48,Wunderground v.1.15,2013-12-14 18:35:00,
2013-12-14 13:37:00,36.8,36.8,29.75,ESE,110,0.0,0.0,100,0.00,,,0.48,Wunderground v.1.15,2013-12-14 18:37:00,
2013-12-14 13:38:00,36.8,36.8,29.75,ESE,110,0.0,0.0,100,0.00,,,0.48,Wunderground v.1.15,2013-12-14 18:38:00,
2013-12-14 13:39:00,36.8,36.8,29.75,ESE,110,0.0,0.0,100,0.00,,,0.48,Wunderground v.1.15,2013-12-14 18:39:00,
2013-12-14 13:41:00,36.8,36.8,29.75,ESE,110,0.0,0.0,100,0.00,,,0.48,Wunderground v.1.15,2013-12-14 18:41:00,
2013-12-14 13:42:00,36.8,36.8,29.75,ESE,110,0.0,0.0,100,0.00,,,0.48,Wunderground v.1.15,2013-12-14 18:42:00,
2013-12-14 13:43:00,36.8,36.8,29.75,ESE,110,0.0,0.0,100,0.00,,,0.48,Wunderground v.1.15,2013-12-14 18:43:00,
2013-12-14 13:44:00,36.8,36.8,29.75,ESE,110,0.0,0.0,100,0.00,,,0.48,Wunderground v.1.15,2013-12-14 18:44:00,
2013-12-14 13:48:00,36.8,36.8,29.75,ESE,110,0.0,0.0,100,0.00,,,0.48,Wunderground v.1.15,2013-12-14 18:48:00,
2013-12-14 13:50:00,36.8,36.8,29.75,ESE,110,0.0,0.0,100,0.00,,,0.48,Wunderground v.1.15,2013-12-14 18:50:00,
2013-12-14 13:51:00,36.8,36.8,29.75,ESE,110,0.0,0.0,100,0.00,,,0.48,Wunderground v.1.15,2013-12-14 18:51:00,
2013-12-14 13:52:00,36.8,36.8,29.75,ESE,110,0.0,0.0,100,0.00,,,0.48,Wunderground v.1.15,2013-12-14 18:52:00,
2013-12-14 13:53:00,36.8,36.8,29.75,ESE,110,0.0,0.0,100,0.00,,,0.48,Wunderground v.1.15,2013-12-14 18:53:00,
2013-12-14 13:56:00,36.8,36.8,29.75,ESE,110,0.0,0.0,100,0.00,,,0.48,Wunderground v.1.15,2013-12-14 18:56:00,
2013-12-14 13:59:00,36.7,36.7,29.75,ESE,110,0.0,0.0,100,0.00,,,0.48,Wunderground v.1.15,2013-12-14 18:59:00,
2013-12-14 14:03:00,36.8,36.8,29.75,ESE,110,0.0,0.0,100,0.00,,,0.48,Wunderground v.1.15,2013-12-14 19:03:00,
2013-12-14 14:04:00,36.8,36.8,29.75,ESE,110,0.0,0.0,100,0.00,,,0.48,Wunderground v.1.15,2013-12-14 19:04:00,
2013-12-14 14:07:00,36.8,36.8,29.75,ESE,110,0.0,0.0,100,0.00,,,0.48,Wunderground v.1.15,2013-12-14 19:07:00,
2013-12-14 14:08:00,36.7,36.7,29.75,West,272,0.0,0.0,100,0.00,,,0.48,Wunderground v.1.15,2013-12-14 19:08:00,
2013-12-14 14:09:00,36.7,36.7,29.75,West,274,0.0,0.0,100,0.00,,,0.48,Wunderground v.1.15,2013-12-14 19:09:00,
2013-12-14 14:10:00,36.7,36.7,29.75,West,274,0.0,0.0,100,0.00,,,0.48,Wunderground v.1.15,2013-12-14 19:10:00,
2013-12-14 14:12:00,36.7,36.7,29.75,WNW,288,0.0,3.0,100,0.00,,,0.48,Wunderground v.1.15,2013-12-14 19:12:00,
2013-12-14 14:13:00,36.7,36.7,29.75,WNW,291,0.0,3.0,100,0.00,,,0.48,Wunderground v.1.15,2013-12-14 19:13:00,
2013-12-14 14:14:00,36.7,36.7,29.75,WNW,291,0.0,3.0,100,0.00,,,0.48,Wunderground v.1.15,2013-12-14 19:14:00,
2013-12-14 14:18:00,36.7,36.7,29.75,WNW,291,0.0,3.0,100,0.00,,,0.48,Wunderground v.1.15,2013-12-14 19:18:00,
2013-12-14 14:19:00,36.7,36.7,29.75,WNW,291,0.0,3.0,100,0.00,,,0.48,Wunderground v.1.15,2013-12-14 19:19:00,
2013-12-14 14:21:00,36.7,36.7,29.75,WNW,291,0.0,0.0,100,0.00,,,0.48,Wunderground v.1.15,2013-12-14 19:21:00,
2013-12-14 14:22:00,36.8,36.8,29.75,WNW,291,0.0,0.0,100,0.00,,,0.48,Wunderground v.1.15,2013-12-14 19:22:00,
2013-12-14 14:25:00,36.8,36.8,29.75,WNW,291,0.0,0.0,100,0.00,,,0.49,Wunderground v.1.15,2013-12-14 19:25:00,
2013-12-14 14:26:00,36.8,36.8,29.75,WNW,291,0.0,0.0,100,0.00,,,0.49,Wunderground v.1.15,2013-12-14 19:26:00,
2013-12-14 14:30:00,36.8,36.8,29.76,WNW,291,0.0,0.0,100,0.00,,,0.49,Wunderground v.1.15,2013-12-14 19:30:00,
2013-12-14 14:31:00,36.8,36.8,29.76,WNW,291,0.0,0.0,100,0.00,,,0.49,Wunderground v.1.15,2013-12-14 19:31:00,
2013-12-14 14:33:00,36.8,36.8,29.76,WNW,291,0.0,0.0,100,0.00,,,0.49,Wunderground v.1.15,2013-12-14 19:33:00,
2013-12-14 14:34:00,36.8,36.8,29.76,WNW,291,0.0,0.0,100,0.00,,,0.49,Wunderground v.1.15,2013-12-14 19:34:00,
2013-12-14 14:39:00,36.8,36.8,29.76,NW,316,0.0,0.0,100,0.00,,,0.49,Wunderground v.1.15,2013-12-14 19:39:00,
2013-12-14 14:40:00,36.8,36.8,29.76,NW,316,0.0,0.0,100,0.00,,,0.49,Wunderground v.1.15,2013-12-14 19:40:00,
2013-12-14 14:41:00,36.8,36.8,29.76,NW,316,0.0,0.0,100,0.00,,,0.49,Wunderground v.1.15,2013-12-14 19:41:00,
2013-12-14 14:45:00,37.0,37.0,29.75,WNW,284,0.0,3.0,100,0.00,,,0.49,Wunderground v.1.15,2013-12-14 19:45:00,
2013-12-14 14:46:00,37.0,37.0,29.75,WNW,284,0.0,3.0,100,0.00,,,0.49,Wunderground v.1.15,2013-12-14 19:46:00,
2013-12-14 14:47:00,37.0,37.0,29.75,WNW,285,1.0,3.0,100,0.00,,,0.49,Wunderground v.1.15,2013-12-14 19:47:00,
2013-12-14 14:49:00,37.0,37.0,29.75,WNW,285,1.0,3.0,100,0.00,,,0.49,Wunderground v.1.15,2013-12-14 19:49:00,
2013-12-14 14:50:00,37.0,37.0,29.75,WNW,285,1.0,1.0,100,0.00,,,0.49,Wunderground v.1.15,2013-12-14 19:50:00,
2013-12-14 14:51:00,37.0,37.0,29.75,WNW,285,1.0,1.0,100,0.00,,,0.49,Wunderground v.1.15,2013-12-14 19:51:00,
2013-12-14 14:52:00,37.0,37.0,29.75,NW,313,1.0,1.0,100,0.00,,,0.49,Wunderground v.1.15,2013-12-14 19:52:00,
2013-12-14 14:55:00,37.0,37.0,29.75,WNW,292,1.0,1.0,100,0.00,,,0.49,Wunderground v.1.15,2013-12-14 19:55:00,
2013-12-14 14:57:00,37.0,37.0,29.75,WNW,285,1.0,5.0,100,0.00,,,0.49,Wunderground v.1.15,2013-12-14 19:57:00,
2013-12-14 14:58:00,37.0,37.0,29.75,West,271,1.0,5.0,100,0.00,,,0.49,Wunderground v.1.15,2013-12-14 19:58:00,
2013-12-14 15:03:00,36.8,36.8,29.76,WSW,253,2.0,2.0,100,0.00,,,0.49,Wunderground v.1.15,2013-12-14 20:03:00,
2013-12-14 15:04:00,36.8,36.8,29.76,West,261,1.0,2.0,100,0.00,,,0.49,Wunderground v.1.15,2013-12-14 20:04:00,
2013-12-14 15:05:00,36.8,36.8,29.76,West,277,2.0,4.0,100,0.00,,,0.49,Wunderground v.1.15,2013-12-14 20:05:00,
2013-12-14 15:07:00,36.8,36.8,29.76,West,274,2.0,4.0,100,0.00,,,0.49,Wunderground v.1.15,2013-12-14 20:07:00,
2013-12-14 15:09:00,36.8,36.8,29.76,West,274,1.0,4.0,100,0.00,,,0.49,Wunderground v.1.15,2013-12-14 20:09:00,
2013-12-14 15:11:00,36.8,36.8,29.76,West,272,1.0,2.0,100,0.00,,,0.49,Wunderground v.1.15,2013-12-14 20:11:00,
2013-12-14 15:12:00,36.8,36.8,29.76,West,272,1.0,2.0,100,0.00,,,0.49,Wunderground v.1.15,2013-12-14 20:12:00,
2013-12-14 15:13:00,36.8,36.8,29.76,West,274,1.0,2.0,100,0.00,,,0.49,Wunderground v.1.15,2013-12-14 20:13:00,
2013-12-14 15:16:00,37.0,37.0,29.76,West,278,1.0,5.0,100,0.00,,,0.49,Wunderground v.1.15,2013-12-14 20:16:00,
2013-12-14 15:17:00,37.0,37.0,29.76,West,278,1.0,5.0,100,0.00,,,0.49,Wunderground v.1.15,2013-12-14 20:17:00,
2013-12-14 15:19:00,37.0,37.0,29.76,West,278,1.0,5.0,100,0.00,,,0.49,Wunderground v.1.15,2013-12-14 20:19:00,
2013-12-14 15:22:00,37.0,37.0,29.76,NW,304,2.0,6.0,100,0.00,,,0.49,Wunderground v.1.15,2013-12-14 20:22:00,
2013-12-14 15:23:00,37.0,37.0,29.76,WNW,302,2.0,6.0,100,0.00,,,0.49,Wunderground v.1.15,2013-12-14 20:23:00,
2013-12-14 15:26:00,36.8,36.8,29.76,WNW,294,2.0,6.0,100,0.00,,,0.49,Wunderground v.1.15,2013-12-14 20:26:00,
2013-12-14 15:28:00,37.0,37.0,29.76,West,274,2.0,6.0,100,0.00,,,0.49,Wunderground v.1.15,2013-12-14 20:28:00,
2013-12-14 15:31:00,37.0,37.0,29.77,West,271,2.0,5.0,100,0.00,,,0.49,Wunderground v.1.15,2013-12-14 20:31:00,
2013-12-14 15:33:00,37.0,37.0,29.77,NW,320,2.0,5.0,100,0.00,,,0.49,Wunderground v.1.15,2013-12-14 20:33:00,
2013-12-14 15:34:00,37.0,37.0,29.77,WNW,291,3.0,6.0,100,0.00,,,0.49,Wunderground v.1.15,2013-12-14 20:34:00,
2013-12-14 15:36:00,36.8,36.8,29.77,West,261,3.0,6.0,100,0.00,,,0.49,Wunderground v.1.15,2013-12-14 20:36:00,
2013-12-14 15:37:00,36.8,36.8,29.77,WNW,301,3.0,6.0,100,0.00,,,0.49,Wunderground v.1.15,2013-12-14 20:37:00,
2013-12-14 15:39:00,36.8,36.8,29.77,West,265,3.0,7.0,100,0.00,,,0.49,Wunderground v.1.15,2013-12-14 20:39:00,
2013-12-14 15:40:00,36.8,36.8,29.77,NW,318,3.0,3.0,100,0.00,,,0.49,Wunderground v.1.15,2013-12-14 20:40:00,
2013-12-14 15:42:00,36.8,36.8,29.77,West,261,4.0,4.0,100,0.00,,,0.49,Wunderground v.1.15,2013-12-14 20:42:00,
2013-12-14 15:44:00,36.8,36.8,29.77,SW,233,4.0,9.0,100,0.00,,,0.49,Wunderground v.1.15,2013-12-14 20:44:00,
2013-12-14 15:46:00,36.8,36.8,29.78,WSW,253,4.0,9.0,100,0.00,,,0.49,Wunderground v.1.15,2013-12-14 20:46:00,
2013-12-14 15:49:00,36.8,36.8,29.78,WNW,302,4.0,9.0,100,0.00,,,0.49,Wunderground v.1.15,2013-12-14 20:49:00,
2013-12-14 15:50:00,36.8,36.8,29.78,WNW,285,4.0,4.0,100,0.00,,,0.49,Wunderground v.1.15,2013-12-14 20:50:00,
2013-12-14 15:52:00,36.7,36.7,29.78,NW,309,4.0,4.0,100,0.00,,,0.49,Wunderground v.1.15,2013-12-14 20:52:00,
2013-12-14 15:53:00,36.7,36.7,29.78,NW,309,3.0,4.0,100,0.00,,,0.49,Wunderground v.1.15,2013-12-14 20:53:00,
2013-12-14 15:54:00,36.7,36.7,29.78,NW,309,3.0,4.0,100,0.00,,,0.49,Wunderground v.1.15,2013-12-14 20:54:00,
2013-12-14 15:56:00,36.7,36.7,29.78,WNW,294,3.0,4.0,100,0.00,,,0.49,Wunderground v.1.15,2013-12-14 20:56:00,
2013-12-14 15:57:00,36.7,36.7,29.78,WNW,282,2.0,4.0,100,0.00,,,0.49,Wunderground v.1.15,2013-12-14 20:57:00,
2013-12-14 15:59:00,36.7,36.7,29.78,WNW,285,2.0,6.0,100,0.00,,,0.49,Wunderground v.1.15,2013-12-14 20:59:00,
2013-12-14 16:02:00,36.5,36.5,29.79,WNW,285,2.0,2.0,100,0.00,,,0.49,Wunderground v.1.15,2013-12-14 21:02:00,
2013-12-14 16:03:00,36.5,36.5,29.79,WNW,301,2.0,2.0,100,0.00,,,0.49,Wunderground v.1.15,2013-12-14 21:03:00,
2013-12-14 16:06:00,36.5,36.5,29.79,WNW,298,3.0,8.0,100,0.00,,,0.49,Wunderground v.1.15,2013-12-14 21:06:00,
2013-12-14 16:07:00,36.5,36.5,29.79,WNW,296,3.0,8.0,100,0.00,,,0.49,Wunderground v.1.15,2013-12-14 21:07:00,
2013-12-14 16:09:00,36.5,36.5,29.79,WNW,295,3.0,8.0,100,0.00,,,0.49,Wunderground v.1.15,2013-12-14 21:09:00,
2013-12-14 16:11:00,36.4,36.4,29.79,WNW,301,3.0,6.0,100,0.00,,,0.49,Wunderground v.1.15,2013-12-14 21:11:00,
2013-12-14 16:12:00,36.4,36.4,29.79,West,264,3.0,6.0,100,0.00,,,0.49,Wunderground v.1.15,2013-12-14 21:12:00,
2013-12-14 16:14:00,36.4,36.4,29.79,WNW,296,3.0,6.0,100,0.00,,,0.49,Wunderground v.1.15,2013-12-14 21:14:00,
2013-12-14 16:15:00,36.4,36.4,29.79,WNW,291,3.0,6.0,100,0.00,,,0.49,Wunderground v.1.15,2013-12-14 21:15:00,
2013-12-14 16:18:00,36.3,36.3,29.79,WNW,287,3.0,6.0,100,0.00,,,0.49,Wunderground v.1.15,2013-12-14 21:18:00,
2013-12-14 16:19:00,36.3,36.3,29.79,WNW,294,3.0,6.0,100,0.00,,,0.49,Wunderground v.1.15,2013-12-14 21:19:00,
2013-12-14 16:22:00,36.3,36.3,29.79,NNW,330,4.0,5.0,100,0.00,,,0.49,Wunderground v.1.15,2013-12-14 21:22:00,
2013-12-14 16:23:00,36.3,36.3,29.79,WNW,302,4.0,8.0,100,0.00,,,0.49,Wunderground v.1.15,2013-12-14 21:23:00,
2013-12-14 16:24:00,36.3,36.3,29.79,WNW,301,4.0,8.0,100,0.00,,,0.49,Wunderground v.1.15,2013-12-14 21:24:00,
2013-12-14 16:26:00,36.1,36.1,29.79,NW,308,4.0,8.0,100,0.00,,,0.49,Wunderground v.1.15,2013-12-14 21:26:00,
2013-12-14 16:27:00,36.1,36.1,29.79,WNW,285,4.0,8.0,100,0.00,,,0.49,Wunderground v.1.15,2013-12-14 21:27:00,
2013-12-14 16:28:00,36.1,36.1,29.79,NW,312,3.0,8.0,100,0.00,,,0.49,Wunderground v.1.15,2013-12-14 21:28:00,
2013-12-14 16:32:00,36.1,36.1,29.81,West,263,3.0,6.0,100,0.00,,,0.49,Wunderground v.1.15,2013-12-14 21:32:00,
2013-12-14 16:33:00,36.0,36.0,29.81,NW,318,3.0,6.0,100,0.00,,,0.49,Wunderground v.1.15,2013-12-14 21:33:00,
2013-12-14 16:35:00,36.0,36.0,29.81,WNW,288,3.0,6.0,100,0.00,,,0.49,Wunderground v.1.15,2013-12-14 21:35:00,
2013-12-14 16:36:00,36.0,36.0,29.81,WNW,287,3.0,6.0,100,0.00,,,0.49,Wunderground v.1.15,2013-12-14 21:36:00,
2013-12-14 16:37:00,36.0,36.0,29.81,WNW,285,3.0,6.0,100,0.00,,,0.49,Wunderground v.1.15,2013-12-14 21:37:00,
2013-12-14 16:39:00,36.0,36.0,29.81,WNW,289,3.0,6.0,100,0.00,,,0.49,Wunderground v.1.15,2013-12-14 21:39:00,
2013-12-14 16:40:00,36.0,36.0,29.81,WNW,296,3.0,3.0,100,0.00,,,0.49,Wunderground v.1.15,2013-12-14 21:40:00,
2013-12-14 16:41:00,35.8,35.8,29.81,WNW,298,3.0,3.0,100,0.00,,,0.49,Wunderground v.1.15,2013-12-14 21:41:00,
2013-12-14 16:44:00,35.8,35.8,29.81,West,268,3.0,3.0,100,0.00,,,0.49,Wunderground v.1.15,2013-12-14 21:44:00,
2013-12-14 16:45:00,35.8,35.8,29.82,West,272,3.0,3.0,100,0.00,,,0.49,Wunderground v.1.15,2013-12-14 21:45:00,
2013-12-14 16:47:00,35.8,35.8,29.82,West,281,3.0,3.0,100,0.00,,,0.49,Wunderground v.1.15,2013-12-14 21:47:00,
2013-12-14 16:48:00,35.7,35.7,29.82,WNW,285,2.0,3.0,100,0.00,,,0.49,Wunderground v.1.15,2013-12-14 21:48:00,
2013-12-14 16:49:00,35.7,35.7,29.82,NW,306,2.0,3.0,100,0.00,,,0.49,Wunderground v.1.15,2013-12-14 21:49:00,
2013-12-14 16:50:00,35.7,35.7,29.82,WNW,282,2.0,2.0,100,0.00,,,0.49,Wunderground v.1.15,2013-12-14 21:50:00,
2013-12-14 16:54:00,35.7,35.7,29.82,WNW,291,3.0,6.0,100,0.00,,,0.49,Wunderground v.1.15,2013-12-14 21:54:00,
2013-12-14 16:55:00,35.7,35.7,29.82,NW,319,3.0,6.0,100,0.00,,,0.49,Wunderground v.1.15,2013-12-14 21:55:00,
2013-12-14 16:56:00,35.7,35.7,29.82,NW,306,3.0,6.0,100,0.00,,,0.49,Wunderground v.1.15,2013-12-14 21:56:00,
2013-12-14 16:57:00,35.7,35.7,29.82,WNW,296,3.0,6.0,100,0.00,,,0.49,Wunderground v.1.15,2013-12-14 21:57:00,
2013-12-14 17:00:00,35.5,35.5,29.83,NW,309,4.0,4.0,100,0.00,,,0.49,Wunderground v.1.15,2013-12-14 22:00:00,
2013-12-14 17:02:00,35.5,35.5,29.83,WNW,302,3.0,4.0,100,0.00,,,0.49,Wunderground v.1.15,2013-12-14 22:02:00,
2013-12-14 17:03:00,35.5,35.2,29.83,WNW,285,3.0,4.0,99,0.00,,,0.49,Wunderground v.1.15,2013-12-14 22:03:00,
2013-12-14 17:04:00,35.5,35.2,29.83,WNW,288,3.0,4.0,99,0.00,,,0.49,Wunderground v.1.15,2013-12-14 22:04:00,
2013-12-14 17:06:00,35.5,35.2,29.83,WNW,291,2.0,5.0,99,0.00,,,0.49,Wunderground v.1.15,2013-12-14 22:06:00,
2013-12-14 17:07:00,35.4,35.1,29.83,WNW,291,2.0,5.0,99,0.00,,,0.49,Wunderground v.1.15,2013-12-14 22:07:00,
2013-12-14 17:08:00,35.4,35.4,29.83,NW,315,2.0,5.0,100,0.00,,,0.49,Wunderground v.1.15,2013-12-14 22:08:00,
2013-12-14 17:09:00,35.4,35.1,29.83,NNW,333,2.0,5.0,99,0.00,,,0.49,Wunderground v.1.15,2013-12-14 22:09:00,
2013-12-14 17:10:00,35.4,35.1,29.83,WNW,289,2.0,2.0,99,0.00,,,0.49,Wunderground v.1.15,2013-12-14 22:10:00,
2013-12-14 17:13:00,35.4,35.1,29.83,West,278,2.0,2.0,99,0.00,,,0.49,Wunderground v.1.15,2013-12-14 22:13:00,
2013-12-14 17:15:00,35.4,35.1,29.83,WNW,295,2.0,7.0,99,0.00,,,0.49,Wunderground v.1.15,2013-12-14 22:15:00,
2013-12-14 17:16:00,35.4,35.1,29.83,WSW,257,2.0,7.0,99,0.00,,,0.49,Wunderground v.1.15,2013-12-14 22:16:00,
2013-12-14 17:20:00,35.4,35.1,29.83,WNW,302,3.0,3.0,99,0.00,,,0.49,Wunderground v.1.15,2013-12-14 22:20:00,
2013-12-14 17:21:00,35.4,35.1,29.83,WNW,294,3.0,3.0,99,0.00,,,0.49,Wunderground v.1.15,2013-12-14 22:21:00,
2013-12-14 17:22:00,35.2,34.9,29.83,West,281,3.0,7.0,99,0.00,,,0.49,Wunderground v.1.15,2013-12-14 22:22:00,
2013-12-14 17:23:00,35.2,34.9,29.83,NW,315,4.0,7.0,99,0.00,,,0.49,Wunderground v.1.15,2013-12-14 22:23:00,
2013-12-14 17:24:00,35.2,34.9,29.83,WNW,299,4.0,7.0,99,0.00,,,0.49,Wunderground v.1.15,2013-12-14 22:24:00,
2013-12-14 17:26:00,35.2,34.9,29.83,NW,311,3.0,7.0,99,0.00,,,0.49,Wunderground v.1.15,2013-12-14 22:26:00,
2013-12-14 17:27:00,35.2,34.9,29.83,NW,312,3.0,7.0,99,0.00,,,0.49,Wunderground v.1.15,2013-12-14 22:27:00,
2013-12-14 17:29:00,35.2,34.9,29.83,WNW,302,3.0,7.0,99,0.00,,,0.49,Wunderground v.1.15,2013-12-14 22:29:00,
2013-12-14 17:30:00,35.2,34.9,29.84,NW,308,3.0,5.0,99,0.00,,,0.49,Wunderground v.1.15,2013-12-14 22:30:00,
2013-12-14 17:32:00,35.1,34.8,29.84,WNW,284,3.0,7.0,99,0.00,,,0.49,Wunderground v.1.15,2013-12-14 22:32:00,
2013-12-14 17:33:00,35.1,34.8,29.84,NW,320,3.0,7.0,99,0.00,,,0.49,Wunderground v.1.15,2013-12-14 22:33:00,
2013-12-14 17:34:00,35.1,34.8,29.84,West,271,3.0,7.0,99,0.00,,,0.49,Wunderground v.1.15,2013-12-14 22:34:00,
2013-12-14 17:37:00,35.1,34.8,29.84,WNW,285,3.0,7.0,99,0.00,,,0.49,Wunderground v.1.15,2013-12-14 22:37:00,
2013-12-14 17:38:00,35.1,34.8,29.84,WNW,294,3.0,7.0,99,0.00,,,0.49,Wunderground v.1.15,2013-12-14 22:38:00,
2013-12-14 17:40:00,34.9,34.6,29.84,NW,318,3.0,5.0,99,0.00,,,0.49,Wunderground v.1.15,2013-12-14 22:40:00,
2013-12-14 17:42:00,34.9,34.6,29.84,WNW,301,4.0,6.0,99,0.00,,,0.49,Wunderground v.1.15,2013-12-14 22:42:00,
2013-12-14 17:44:00,34.9,34.6,29.84,West,268,4.0,6.0,99,0.00,,,0.49,Wunderground v.1.15,2013-12-14 22:44:00,
2013-12-14 17:46:00,34.8,34.5,29.85,WSW,258,4.0,8.0,99,0.00,,,0.49,Wunderground v.1.15,2013-12-14 22:46:00,
2013-12-14 17:48:00,34.8,34.5,29.85,NW,313,5.0,8.0,99,0.00,,,0.49,Wunderground v.1.15,2013-12-14 22:48:00,
2013-12-14 17:50:00,34.8,34.5,29.85,NW,318,4.0,4.0,99,0.00,,,0.49,Wunderground v.1.15,2013-12-14 22:50:00,
2013-12-14 17:51:00,34.8,34.5,29.85,NW,320,4.0,4.0,99,0.00,,,0.49,Wunderground v.1.15,2013-12-14 22:51:00,
2013-12-14 17:53:00,34.6,34.3,29.85,WNW,288,4.0,4.0,99,0.00,,,0.49,Wunderground v.1.15,2013-12-14 22:53:00,
2013-12-14 17:56:00,34.6,34.3,29.85,WNW,285,3.0,4.0,99,0.00,,,0.49,Wunderground v.1.15,2013-12-14 22:56:00,
2013-12-14 17:57:00,34.6,34.3,29.85,NW,316,3.0,4.0,99,0.00,,,0.49,Wunderground v.1.15,2013-12-14 22:57:00,
2013-12-14 18:00:00,34.6,34.3,29.85,West,271,3.0,4.0,99,0.00,,,0.49,Wunderground v.1.15,2013-12-14 23:00:00,
2013-12-14 18:02:00,34.6,34.3,29.85,NW,322,4.0,4.0,99,0.00,,,0.49,Wunderground v.1.15,2013-12-14 23:02:00,
2013-12-14 18:06:00,34.6,34.3,29.85,WNW,291,4.0,6.0,99,0.00,,,0.49,Wunderground v.1.15,2013-12-14 23:06:00,
2013-12-14 18:09:00,34.6,34.3,29.85,WNW,292,4.0,6.0,99,0.00,,,0.49,Wunderground v.1.15,2013-12-14 23:09:00,
2013-12-14 18:11:00,34.6,34.3,29.85,West,265,3.0,6.0,99,0.00,,,0.49,Wunderground v.1.15,2013-12-14 23:11:00,
2013-12-14 18:12:00,34.6,34.3,29.85,WNW,288,3.0,6.0,99,0.00,,,0.49,Wunderground v.1.15,2013-12-14 23:12:00,
2013-12-14 18:13:00,34.6,34.3,29.85,WNW,299,4.0,6.0,99,0.00,,,0.49,Wunderground v.1.15,2013-12-14 23:13:00,
2013-12-14 18:17:00,34.6,34.1,29.86,WNW,301,3.0,6.0,98,0.00,,,0.49,Wunderground v.1.15,2013-12-14 23:17:00,
2013-12-14 18:18:00,34.6,34.1,29.86,NW,312,3.0,6.0,98,0.00,,,0.49,Wunderground v.1.15,2013-12-14 23:18:00,
2013-12-14 18:19:00,34.6,34.1,29.86,WNW,298,3.0,11.0,98,0.00,,,0.49,Wunderground v.1.15,2013-12-14 23:19:00,
2013-12-14 18:20:00,34.6,34.1,29.86,NW,318,4.0,4.0,98,0.00,,,0.49,Wunderground v.1.15,2013-12-14 23:20:00,
2013-12-14 18:22:00,34.5,34.0,29.86,WNW,285,4.0,11.0,98,0.00,,,0.49,Wunderground v.1.15,2013-12-14 23:22:00,
2013-12-14 18:23:00,34.5,34.0,29.86,NW,315,4.0,11.0,98,0.00,,,0.49,Wunderground v.1.15,2013-12-14 23:23:00,
2013-12-14 18:24:00,34.5,34.0,29.86,WNW,289,4.0,11.0,98,0.00,,,0.49,Wunderground v.1.15,2013-12-14 23:24:00,
2013-12-14 18:28:00,34.5,34.0,29.86,WNW,301,4.0,11.0,98,0.00,,,0.49,Wunderground v.1.15,2013-12-14 23:28:00,
2013-12-14 18:31:00,34.5,34.0,29.86,WSW,251,3.0,6.0,98,0.00,,,0.49,Wunderground v.1.15,2013-12-14 23:31:00,
2013-12-14 18:32:00,34.5,34.0,29.86,WNW,294,3.0,6.0,98,0.00,,,0.49,Wunderground v.1.15,2013-12-14 23:32:00,
2013-12-14 18:34:00,34.5,34.0,29.86,West,281,3.0,6.0,98,0.00,,,0.49,Wunderground v.1.15,2013-12-14 23:34:00,
2013-12-14 18:35:00,34.5,34.0,29.86,NW,312,3.0,6.0,98,0.00,,,0.49,Wunderground v.1.15,2013-12-14 23:35:00,
2013-12-14 18:37:00,34.5,34.0,29.86,NW,316,3.0,6.0,98,0.00,,,0.49,Wunderground v.1.15,2013-12-14 23:37:00,
2013-12-14 18:38:00,34.5,34.0,29.86,WNW,284,3.0,6.0,98,0.00,,,0.49,Wunderground v.1.15,2013-12-14 23:38:00,
2013-12-14 18:39:00,34.5,34.0,29.86,NNW,328,3.0,6.0,98,0.00,,,0.49,Wunderground v.1.15,2013-12-14 23:39:00,
2013-12-14 18:41:00,34.5,34.0,29.86,West,278,3.0,5.0,98,0.00,,,0.49,Wunderground v.1.15,2013-12-14 23:41:00,
2013-12-14 18:42:00,34.5,34.0,29.86,WNW,295,3.0,8.0,98,0.00,,,0.49,Wunderground v.1.15,2013-12-14 23:42:00,
2013-12-14 18:46:00,34.5,34.0,29.87,West,263,3.0,8.0,98,0.00,,,0.49,Wunderground v.1.15,2013-12-14 23:46:00,
2013-12-14 18:47:00,34.5,34.0,29.87,WNW,302,3.0,8.0,98,0.00,,,0.49,Wunderground v.1.15,2013-12-14 23:47:00,
2013-12-14 18:51:00,34.5,34.0,29.87,West,274,4.0,4.0,98,0.00,,,0.49,Wunderground v.1.15,2013-12-14 23:51:00,
2013-12-14 18:52:00,34.5,34.0,29.87,West,270,4.0,4.0,98,0.00,,,0.49,Wunderground v.1.15,2013-12-14 23:52:00,
2013-12-14 18:53:00,34.5,34.0,29.87,NW,313,3.0,4.0,98,0.00,,,0.49,Wunderground v.1.15,2013-12-14 23:53:00,
2013-12-14 18:54:00,34.5,34.0,29.87,West,277,3.0,4.0,98,0.00,,,0.49,Wunderground v.1.15,2013-12-14 23:54:00,
2013-12-14 18:55:00,34.5,34.0,29.87,West,275,3.0,4.0,98,0.00,,,0.49,Wunderground v.1.15,2013-12-14 23:55:00,
2013-12-14 18:58:00,34.5,34.0,29.87,West,260,3.0,4.0,98,0.00,,,0.49,Wunderground v.1.15,2013-12-14 23:58:00,
2013-12-14 18:59:00,34.5,34.0,29.87,WNW,295,3.0,4.0,98,0.00,,,0.49,Wunderground v.1.15,2013-12-14 23:59:00,
2013-12-14 19:00:00,34.5,34.0,29.88,West,265,2.0,4.0,98,0.00,,,0.49,Wunderground v.1.15,2013-12-15 00:00:00,
2013-12-14 19:01:00,34.5,34.0,29.88,NW,306,2.0,4.0,98,0.00,,,0.49,Wunderground v.1.15,2013-12-15 00:01:00,
2013-12-14 19:02:00,34.5,34.0,29.88,WNW,282,2.0,4.0,98,0.00,,,0.49,Wunderground v.1.15,2013-12-15 00:02:00,
2013-12-14 19:05:00,34.5,34.0,29.88,NW,316,2.0,4.0,98,0.00,,,0.49,Wunderground v.1.15,2013-12-15 00:05:00,
2013-12-14 19:08:00,34.5,34.0,29.88,WNW,296,2.0,6.0,98,0.00,,,0.49,Wunderground v.1.15,2013-12-15 00:08:00,
2013-12-14 19:09:00,34.5,34.0,29.88,WNW,296,2.0,6.0,98,0.00,,,0.49,Wunderground v.1.15,2013-12-15 00:09:00,
2013-12-14 19:11:00,34.5,34.0,29.88,WNW,296,2.0,3.0,98,0.00,,,0.49,Wunderground v.1.15,2013-12-15 00:11:00,
2013-12-14 19:12:00,34.5,34.0,29.88,NW,313,2.0,3.0,98,0.00,,,0.49,Wunderground v.1.15,2013-12-15 00:12:00,
2013-12-14 19:15:00,34.5,33.7,29.88,NW,311,2.0,3.0,97,0.00,,,0.49,Wunderground v.1.15,2013-12-15 00:15:00,
2013-12-14 19:16:00,34.5,33.7,29.88,WNW,298,2.0,5.0,97,0.00,,,0.49,Wunderground v.1.15,2013-12-15 00:16:00,
2013-12-14 19:17:00,34.5,33.7,29.88,WNW,284,2.0,5.0,97,0.00,,,0.49,Wunderground v.1.15,2013-12-15 00:17:00,
2013-12-14 19:19:00,34.5,33.7,29.88,WNW,295,3.0,5.0,97,0.00,,,0.49,Wunderground v.1.15,2013-12-15 00:19:00,
2013-12-14 19:21:00,34.5,33.7,29.88,NW,322,3.0,3.0,97,0.00,,,0.49,Wunderground v.1.15,2013-12-15 00:21:00,
2013-12-14 19:22:00,34.5,33.7,29.88,NW,323,3.0,3.0,97,0.00,,,0.49,Wunderground v.1.15,2013-12-15 00:22:00,
2013-12-14 19:23:00,34.5,33.7,29.88,WNW,296,3.0,3.0,97,0.00,,,0.49,Wunderground v.1.15,2013-12-15 00:23:00,
2013-12-14 19:24:00,34.5,33.7,29.88,West,281,3.0,8.0,97,0.00,,,0.49,Wunderground v.1.15,2013-12-15 00:24:00,
2013-12-14 19:27:00,34.5,33.7,29.88,WNW,287,3.0,8.0,97,0.00,,,0.49,Wunderground v.1.15,2013-12-15 00:27:00,
2013-12-14 19:28:00,34.5,33.7,29.88,WNW,292,3.0,8.0,97,0.00,,,0.49,Wunderground v.1.15,2013-12-15 00:28:00,
2013-12-14 19:29:00,34.5,33.7,29.88,WNW,302,3.0,8.0,97,0.00,,,0.49,Wunderground v.1.15,2013-12-15 00:29:00,
2013-12-14 19:32:00,34.5,33.7,29.89,WNW,287,3.0,5.0,97,0.00,,,0.49,Wunderground v.1.15,2013-12-15 00:32:00,
2013-12-14 19:34:00,34.5,33.7,29.89,WNW,282,3.0,5.0,97,0.00,,,0.49,Wunderground v.1.15,2013-12-15 00:34:00,
2013-12-14 19:35:00,34.5,33.7,29.89,WNW,284,3.0,5.0,97,0.00,,,0.49,Wunderground v.1.15,2013-12-15 00:35:00,
2013-12-14 19:37:00,34.5,33.7,29.89,WNW,299,2.0,5.0,97,0.00,,,0.49,Wunderground v.1.15,2013-12-15 00:37:00,
2013-12-14 19:38:00,34.5,33.7,29.89,NW,318,2.0,5.0,97,0.00,,,0.49,Wunderground v.1.15,2013-12-15 00:38:00,
2013-12-14 19:39:00,34.5,33.7,29.89,NW,318,2.0,5.0,97,0.00,,,0.49,Wunderground v.1.15,2013-12-15 00:39:00,
2013-12-14 19:40:00,34.5,33.7,29.89,West,275,2.0,2.0,97,0.00,,,0.49,Wunderground v.1.15,2013-12-15 00:40:00,
2013-12-14 19:41:00,34.5,33.7,29.89,West,281,2.0,2.0,97,0.00,,,0.49,Wunderground v.1.15,2013-12-15 00:41:00,
2013-12-14 19:42:00,34.5,33.7,29.89,WNW,301,2.0,2.0,97,0.00,,,0.49,Wunderground v.1.15,2013-12-15 00:42:00,
2013-12-14 19:45:00,34.5,33.7,29.89,NW,305,2.0,7.0,97,0.00,,,0.49,Wunderground v.1.15,2013-12-15 00:45:00,
2013-12-14 19:47:00,34.5,33.7,29.89,WNW,289,2.0,7.0,97,0.00,,,0.49,Wunderground v.1.15,2013-12-15 00:47:00,
2013-12-14 19:48:00,34.5,33.7,29.89,NW,318,2.0,7.0,97,0.00,,,0.49,Wunderground v.1.15,2013-12-15 00:48:00,
2013-12-14 19:49:00,34.5,33.7,29.89,WNW,294,2.0,7.0,97,0.00,,,0.49,Wunderground v.1.15,2013-12-15 00:49:00,
2013-12-14 19:51:00,34.3,33.5,29.89,WNW,301,3.0,3.0,97,0.00,,,0.49,Wunderground v.1.15,2013-12-15 00:51:00,
2013-12-14 19:54:00,34.3,33.5,29.89,WNW,294,3.0,3.0,97,0.00,,,0.49,Wunderground v.1.15,2013-12-15 00:54:00,
2013-12-14 19:55:00,34.3,33.5,29.89,WNW,302,3.0,4.0,97,0.00,,,0.49,Wunderground v.1.15,2013-12-15 00:55:00,
2013-12-14 19:56:00,34.3,33.5,29.89,WNW,292,3.0,4.0,97,0.00,,,0.49,Wunderground v.1.15,2013-12-15 00:56:00,
2013-12-14 19:57:00,34.3,33.5,29.89,NW,305,3.0,4.0,97,0.00,,,0.49,Wunderground v.1.15,2013-12-15 00:57:00,
2013-12-14 19:58:00,34.3,33.5,29.89,NNW,344,3.0,5.0,97,0.00,,,0.49,Wunderground v.1.15,2013-12-15 00:58:00,
2013-12-14 19:59:00,34.3,33.5,29.89,WNW,294,3.0,6.0,97,0.00,,,0.49,Wunderground v.1.15,2013-12-15 00:59:00,
2013-12-14 20:02:00,34.3,33.5,29.90,NNW,328,3.0,3.0,97,0.00,,,0.49,Wunderground v.1.15,2013-12-15 01:02:00,
2013-12-14 20:03:00,34.3,33.5,29.90,NNW,328,3.0,3.0,97,0.00,,,0.49,Wunderground v.1.15,2013-12-15 01:03:00,
2013-12-14 20:05:00,34.3,33.5,29.90,West,278,3.0,3.0,97,0.00,,,0.49,Wunderground v.1.15,2013-12-15 01:05:00,
2013-12-14 20:06:00,34.3,33.5,29.90,WNW,296,3.0,3.0,97,0.00,,,0.49,Wunderground v.1.15,2013-12-15 01:06:00,
2013-12-14 20:10:00,34.3,33.5,29.90,NW,311,2.0,2.0,97,0.00,,,0.49,Wunderground v.1.15,2013-12-15 01:10:00,
2013-12-14 20:11:00,34.3,33.5,29.90,WNW,301,3.0,3.0,97,0.00,,,0.49,Wunderground v.1.15,2013-12-15 01:11:00,
2013-12-14 20:12:00,34.3,33.5,29.90,West,268,3.0,3.0,97,0.00,,,0.49,Wunderground v.1.15,2013-12-15 01:12:00,
2013-12-14 20:16:00,34.3,33.5,29.90,WNW,301,4.0,7.0,97,0.00,,,0.49,Wunderground v.1.15,2013-12-15 01:16:00,
2013-12-14 20:17:00,34.3,33.5,29.90,WNW,301,4.0,7.0,97,0.00,,,0.49,Wunderground v.1.15,2013-12-15 01:17:00,
2013-12-14 20:18:00,34.3,33.5,29.90,WNW,296,4.0,7.0,97,0.00,,,0.49,Wunderground v.1.15,2013-12-15 01:18:00,
2013-12-14 20:20:00,34.3,33.5,29.90,WNW,301,4.0,5.0,97,0.00,,,0.49,Wunderground v.1.15,2013-12-15 01:20:00,
2013-12-14 20:21:00,34.3,33.5,29.90,WNW,302,5.0,5.0,97,0.00,,,0.49,Wunderground v.1.15,2013-12-15 01:21:00,
2013-12-14 20:23:00,34.3,33.5,29.90,WNW,285,5.0,7.0,97,0.00,,,0.49,Wunderground v.1.15,2013-12-15 01:23:00,
2013-12-14 20:26:00,34.2,33.2,29.90,NW,320,5.0,7.0,96,0.00,,,0.49,Wunderground v.1.15,2013-12-15 01:26:00,
2013-12-14 20:27:00,34.2,33.2,29.90,WNW,294,5.0,8.0,96,0.00,,,0.49,Wunderground v.1.15,2013-12-15 01:27:00,
2013-12-14 20:28:00,34.2,33.2,29.90,WNW,287,5.0,8.0,96,0.00,,,0.49,Wunderground v.1.15,2013-12-15 01:28:00,
2013-12-14 20:30:00,34.2,33.2,29.90,NW,325,5.0,11.0,96,0.00,,,0.49,Wunderground v.1.15,2013-12-15 01:30:00,
2013-12-14 20:33:00,34.2,33.2,29.90,WNW,301,5.0,13.0,96,0.00,,,0.49,Wunderground v.1.15,2013-12-15 01:33:00,
2013-12-14 20:34:00,34.2,33.2,29.90,WNW,298,5.0,13.0,96,0.00,,,0.49,Wunderground v.1.15,2013-12-15 01:34:00,
2013-12-14 20:36:00,34.0,33.0,29.90,WNW,284,5.0,13.0,96,0.00,,,0.49,Wunderground v.1.15,2013-12-15 01:36:00,
2013-12-14 20:40:00,34.0,33.0,29.90,NNW,337,6.0,9.0,96,0.00,,,0.49,Wunderground v.1.15,2013-12-15 01:40:00,
2013-12-14 20:41:00,34.0,33.0,29.90,NW,325,5.0,9.0,96,0.00,,,0.49,Wunderground v.1.15,2013-12-15 01:41:00,
2013-12-14 20:43:00,34.0,33.0,29.90,WNW,289,5.0,9.0,96,0.00,,,0.49,Wunderground v.1.15,2013-12-15 01:43:00,
2013-12-14 20:44:00,34.0,33.0,29.90,NNW,339,5.0,9.0,96,0.00,,,0.49,Wunderground v.1.15,2013-12-15 01:44:00,
2013-12-14 20:49:00,34.0,33.0,29.91,NW,315,4.0,9.0,96,0.00,,,0.49,Wunderground v.1.15,2013-12-15 01:49:00,
2013-12-14 20:50:00,34.0,33.0,29.91,WNW,289,4.0,4.0,96,0.00,,,0.49,Wunderground v.1.15,2013-12-15 01:50:00,
2013-12-14 20:51:00,34.0,33.0,29.91,WNW,288,4.0,4.0,96,0.00,,,0.49,Wunderground v.1.15,2013-12-15 01:51:00,
2013-12-14 20:54:00,33.9,32.9,29.91,NW,304,4.0,7.0,96,0.00,,,0.49,Wunderground v.1.15,2013-12-15 01:54:00,
2013-12-14 20:55:00,33.9,32.9,29.91,NW,322,4.0,7.0,96,0.00,,,0.49,Wunderground v.1.15,2013-12-15 01:55:00,
2013-12-14 20:56:00,33.9,32.9,29.91,WNW,287,5.0,7.0,96,0.00,,,0.49,Wunderground v.1.15,2013-12-15 01:56:00,
2013-12-14 20:58:00,33.7,32.7,29.91,NW,322,5.0,8.0,96,0.00,,,0.49,Wunderground v.1.15,2013-12-15 01:58:00,
2013-12-14 21:00:00,33.7,32.4,29.92,NNW,330,6.0,11.0,95,0.00,,,0.49,Wunderground v.1.15,2013-12-15 02:00:00,
2013-12-14 21:01:00,33.7,32.4,29.92,WNW,287,7.0,11.0,95,0.00,,,0.49,Wunderground v.1.15,2013-12-15 02:01:00,
2013-12-14 21:02:00,33.7,32.4,29.92,NW,312,7.0,11.0,95,0.00,,,0.49,Wunderground v.1.15,2013-12-15 02:02:00,
2013-12-14 21:04:00,33.6,32.3,29.92,NW,308,7.0,14.0,95,0.00,,,0.49,Wunderground v.1.15,2013-12-15 02:04:00,
2013-12-14 21:07:00,33.4,32.1,29.92,NNW,329,8.0,14.0,95,0.00,,,0.49,Wunderground v.1.15,2013-12-15 02:07:00,
2013-12-14 21:09:00,33.4,32.1,29.92,NW,308,8.0,14.0,95,0.00,,,0.49,Wunderground v.1.15,2013-12-15 02:09:00,
2013-12-14 21:10:00,33.4,32.1,29.92,NW,305,8.0,8.0,95,0.00,,,0.49,Wunderground v.1.15,2013-12-15 02:10:00,
2013-12-14 21:11:00,33.3,32.0,29.92,NNW,328,8.0,8.0,95,0.00,,,0.49,Wunderground v.1.15,2013-12-15 02:11:00,
2013-12-14 21:12:00,33.3,32.0,29.92,NNW,335,8.0,12.0,95,0.00,,,0.49,Wunderground v.1.15,2013-12-15 02:12:00,
2013-12-14 21:13:00,33.3,32.0,29.92,NNW,343,8.0,12.0,95,0.00,,,0.49,Wunderground v.1.15,2013-12-15 02:13:00,
2013-12-14 21:16:00,33.2,31.9,29.93,WNW,296,6.0,12.0,95,0.00,,,0.49,Wunderground v.1.15,2013-12-15 02:16:00,
2013-12-14 21:18:00,33.2,31.9,29.93,WNW,292,6.0,12.0,95,0.00,,,0.49,Wunderground v.1.15,2013-12-15 02:18:00,
2013-12-14 21:19:00,33.2,31.9,29.93,WSW,257,7.0,12.0,95,0.00,,,0.49,Wunderground v.1.15,2013-12-15 02:19:00,
2013-12-14 21:21:00,33.0,31.5,29.93,West,278,6.0,7.0,94,0.00,,,0.49,Wunderground v.1.15,2013-12-15 02:21:00,
2013-12-14 21:22:00,33.0,31.5,29.93,WNW,288,6.0,7.0,94,0.00,,,0.49,Wunderground v.1.15,2013-12-15 02:22:00,
2013-12-14 21:25:00,32.9,31.4,29.93,WNW,295,6.0,7.0,94,0.00,,,0.49,Wunderground v.1.15,2013-12-15 02:25:00,
2013-12-14 21:27:00,32.9,31.4,29.93,NNW,332,6.0,7.0,94,0.00,,,0.49,Wunderground v.1.15,2013-12-15 02:27:00,
2013-12-14 21:29:00,32.7,31.2,29.93,NW,315,5.0,7.0,94,0.00,,,0.49,Wunderground v.1.15,2013-12-15 02:29:00,
2013-12-14 21:30:00,32.7,31.4,29.93,WNW,299,5.0,6.0,95,0.00,,,0.49,Wunderground v.1.15,2013-12-15 02:30:00,
2013-12-14 21:32:00,32.6,31.1,29.93,NW,323,6.0,13.0,94,0.00,,,0.49,Wunderground v.1.15,2013-12-15 02:32:00,
2013-12-14 21:33:00,32.6,31.1,29.93,NW,306,6.0,13.0,94,0.00,,,0.49,Wunderground v.1.15,2013-12-15 02:33:00,
2013-12-14 21:35:00,32.4,30.9,29.93,WNW,301,7.0,14.0,94,0.00,,,0.49,Wunderground v.1.15,2013-12-15 02:35:00,
2013-12-14 21:37:00,32.4,30.9,29.93,WNW,291,7.0,14.0,94,0.00,,,0.49,Wunderground v.1.15,2013-12-15 02:37:00,
2013-12-14 21:38:00,32.4,30.9,29.93,WNW,292,7.0,14.0,94,0.00,,,0.49,Wunderground v.1.15,2013-12-15 02:38:00,
2013-12-14 21:39:00,32.3,30.8,29.93,NW,306,8.0,14.0,94,0.00,,,0.49,Wunderground v.1.15,2013-12-15 02:39:00,
2013-12-14 21:40:00,32.3,30.8,29.93,WNW,299,8.0,8.0,94,0.00,,,0.49,Wunderground v.1.15,2013-12-15 02:40:00,
2013-12-14 21:41:00,32.3,30.8,29.93,NNW,344,8.0,8.0,94,0.00,,,0.49,Wunderground v.1.15,2013-12-15 02:41:00,
2013-12-14 21:44:00,32.3,30.8,29.93,NNW,328,8.0,10.0,94,0.00,,,0.49,Wunderground v.1.15,2013-12-15 02:44:00,
2013-12-14 21:45:00,32.3,30.8,29.94,NW,304,7.0,10.0,94,0.00,,,0.49,Wunderground v.1.15,2013-12-15 02:45:00,
2013-12-14 21:46:00,32.3,30.8,29.94,NW,316,7.0,10.0,94,0.00,,,0.49,Wunderground v.1.15,2013-12-15 02:46:00,
2013-12-14 21:47:00,32.3,30.8,29.94,NW,326,8.0,10.0,94,0.00,,,0.49,Wunderground v.1.15,2013-12-15 02:47:00,
2013-12-14 21:49:00,32.1,30.6,29.94,West,270,8.0,10.0,94,0.00,,,0.49,Wunderground v.1.15,2013-12-15 02:49:00,
2013-12-14 21:51:00,32.1,30.6,29.94,NW,316,7.0,8.0,94,0.00,,,0.49,Wunderground v.1.15,2013-12-15 02:51:00,
2013-12-14 21:53:00,32.1,30.6,29.94,NNW,332,7.0,8.0,94,0.00,,,0.49,Wunderground v.1.15,2013-12-15 02:53:00,
2013-12-14 21:55:00,32.1,30.6,29.94,NNW,344,6.0,13.0,94,0.00,,,0.49,Wunderground v.1.15,2013-12-15 02:55:00,
2013-12-14 21:56:00,32.1,30.6,29.94,WNW,296,6.0,13.0,94,0.00,,,0.49,Wunderground v.1.15,2013-12-15 02:56:00,
2013-12-14 21:58:00,32.1,30.6,29.94,NW,313,6.0,13.0,94,0.00,,,0.49,Wunderground v.1.15,2013-12-15 02:58:00,
2013-12-14 21:59:00,32.1,30.6,29.94,NW,326,5.0,13.0,94,0.00,,,0.49,Wunderground v.1.15,2013-12-15 02:59:00,
2013-12-14 22:00:00,32.1,30.8,29.94,NW,311,6.0,6.0,95,0.00,,,0.49,Wunderground v.1.15,2013-12-15 03:00:00,
2013-12-14 22:03:00,32.1,30.8,29.94,NNW,342,6.0,7.0,95,0.00,,,0.49,Wunderground v.1.15,2013-12-15 03:03:00,
2013-12-14 22:05:00,32.1,30.8,29.94,NW,319,6.0,7.0,95,0.00,,,0.49,Wunderground v.1.15,2013-12-15 03:05:00,
2013-12-14 22:06:00,32.1,30.8,29.94,NNW,333,5.0,7.0,95,0.00,,,0.49,Wunderground v.1.15,2013-12-15 03:06:00,
2013-12-14 22:08:00,32.1,30.8,29.94,WNW,285,5.0,7.0,95,0.00,,,0.49,Wunderground v.1.15,2013-12-15 03:08:00,
2013-12-14 22:09:00,32.0,30.7,29.94,NW,322,5.0,7.0,95,0.00,,,0.49,Wunderground v.1.15,2013-12-15 03:09:00,
2013-12-14 22:11:00,32.0,30.7,29.94,NW,309,5.0,7.0,95,0.00,,,0.49,Wunderground v.1.15,2013-12-15 03:11:00,
2013-12-14 22:13:00,32.0,30.7,29.94,NW,312,6.0,7.0,95,0.00,,,0.49,Wunderground v.1.15,2013-12-15 03:13:00,
2013-12-14 22:14:00,32.0,30.7,29.94,NW,304,6.0,7.0,95,0.00,,,0.49,Wunderground v.1.15,2013-12-15 03:14:00,
2013-12-14 22:15:00,32.0,30.7,29.96,NW,318,6.0,7.0,95,0.00,,,0.49,Wunderground v.1.15,2013-12-15 03:15:00,
2013-12-14 22:16:00,32.0,30.7,29.96,WNW,298,6.0,12.0,95,0.00,,,0.49,Wunderground v.1.15,2013-12-15 03:16:00,
2013-12-14 22:18:00,31.8,30.3,29.96,WNW,291,7.0,13.0,94,0.00,,,0.49,Wunderground v.1.15,2013-12-15 03:18:00,
2013-12-14 22:19:00,31.8,30.3,29.96,West,268,7.0,13.0,94,0.00,,,0.49,Wunderground v.1.15,2013-12-15 03:19:00,
2013-12-14 22:23:00,31.7,30.2,29.96,NW,319,7.0,13.0,94,0.00,,,0.49,Wunderground v.1.15,2013-12-15 03:23:00,
2013-12-14 22:24:00,31.7,30.2,29.96,NW,322,7.0,13.0,94,0.00,,,0.49,Wunderground v.1.15,2013-12-15 03:24:00,
2013-12-14 22:25:00,31.7,30.2,29.96,WNW,294,8.0,14.0,94,0.00,,,0.49,Wunderground v.1.15,2013-12-15 03:25:00,
2013-12-14 22:28:00,31.5,30.2,29.96,NNW,328,8.0,14.0,95,0.00,,,0.49,Wunderground v.1.15,2013-12-15 03:28:00,
2013-12-14 22:29:00,31.5,30.2,29.96,West,275,7.0,14.0,95,0.00,,,0.49,Wunderground v.1.15,2013-12-15 03:29:00,
2013-12-14 22:30:00,31.5,30.2,29.97,NW,319,7.0,7.0,95,0.00,,,0.49,Wunderground v.1.15,2013-12-15 03:30:00,
2013-12-14 22:31:00,31.5,30.2,29.97,WNW,302,7.0,10.0,95,0.00,,,0.49,Wunderground v.1.15,2013-12-15 03:31:00,
2013-12-14 22:34:00,31.4,30.1,29.97,NW,306,6.0,10.0,95,0.00,,,0.49,Wunderground v.1.15,2013-12-15 03:34:00,
2013-12-14 22:35:00,31.4,30.1,29.97,WNW,294,7.0,10.0,95,0.00,,,0.49,Wunderground v.1.15,2013-12-15 03:35:00,
2013-12-14 22:36:00,31.4,29.9,29.97,NW,325,7.0,10.0,94,0.00,,,0.49,Wunderground v.1.15,2013-12-15 03:36:00,
2013-12-14 22:37:00,31.4,29.9,29.97,WNW,296,7.0,10.0,94,0.00,,,0.49,Wunderground v.1.15,2013-12-15 03:37:00,
2013-12-14 22:40:00,31.2,29.7,29.97,NNW,335,7.0,7.0,94,0.00,,,0.49,Wunderground v.1.15,2013-12-15 03:40:00,
2013-12-14 22:41:00,31.2,29.7,29.97,NW,318,7.0,7.0,94,0.00,,,0.49,Wunderground v.1.15,2013-12-15 03:41:00,
2013-12-14 22:42:00,31.2,29.9,29.97,NNW,332,7.0,7.0,95,0.00,,,0.49,Wunderground v.1.15,2013-12-15 03:42:00,
2013-12-14 22:43:00,31.2,29.7,29.97,NNW,342,7.0,7.0,94,0.00,,,0.49,Wunderground v.1.15,2013-12-15 03:43:00,
2013-12-14 22:46:00,31.2,29.7,29.97,West,278,6.0,7.0,94,0.00,,,0.49,Wunderground v.1.15,2013-12-15 03:46:00,
2013-12-14 22:49:00,31.2,29.9,29.97,West,280,4.0,7.0,95,0.00,,,0.49,Wunderground v.1.15,2013-12-15 03:49:00,
2013-12-14 22:51:00,31.2,29.9,29.97,NW,311,4.0,5.0,95,0.00,,,0.49,Wunderground v.1.15,2013-12-15 03:51:00,
2013-12-14 22:52:00,31.1,29.8,29.97,WNW,285,4.0,7.0,95,0.00,,,0.49,Wunderground v.1.15,2013-12-15 03:52:00,
2013-12-14 22:54:00,31.1,29.8,29.97,NW,316,4.0,7.0,95,0.00,,,0.49,Wunderground v.1.15,2013-12-15 03:54:00,
2013-12-14 22:56:00,31.1,29.8,29.97,WSW,251,4.0,7.0,95,0.00,,,0.49,Wunderground v.1.15,2013-12-15 03:56:00,
2013-12-14 22:57:00,31.1,29.8,29.97,West,277,5.0,7.0,95,0.00,,,0.49,Wunderground v.1.15,2013-12-15 03:57:00,
2013-12-14 22:58:00,30.9,29.6,29.97,WNW,288,5.0,7.0,95,0.00,,,0.49,Wunderground v.1.15,2013-12-15 03:58:00,
2013-12-14 22:59:00,30.9,29.6,29.97,NW,312,6.0,7.0,95,0.00,,,0.49,Wunderground v.1.15,2013-12-15 03:59:00,
2013-12-14 23:00:00,30.9,29.6,29.98,WNW,299,6.0,7.0,95,0.00,,,0.49,Wunderground v.1.15,2013-12-15 04:00:00,
2013-12-14 23:02:00,30.9,29.6,29.98,NW,312,6.0,12.0,95,0.00,,,0.49,Wunderground v.1.15,2013-12-15 04:02:00,
2013-12-14 23:04:00,30.8,29.5,29.98,NW,319,6.0,12.0,95,0.00,,,0.49,Wunderground v.1.15,2013-12-15 04:04:00,
2013-12-14 23:06:00,30.8,29.5,29.98,WNW,302,6.0,12.0,95,0.00,,,0.49,Wunderground v.1.15,2013-12-15 04:06:00,
2013-12-14 23:09:00,30.8,29.5,29.98,NW,306,6.0,12.0,95,0.00,,,0.49,Wunderground v.1.15,2013-12-15 04:09:00,
2013-12-14 23:12:00,30.8,29.5,29.98,NW,323,5.0,10.0,95,0.00,,,0.49,Wunderground v.1.15,2013-12-15 04:12:00,
2013-12-14 23:14:00,30.8,29.5,29.98,NW,311,5.0,10.0,95,0.00,,,0.49,Wunderground v.1.15,2013-12-15 04:14:00,
2013-12-14 23:15:00,30.8,29.5,29.99,NW,322,5.0,10.0,95,0.00,,,0.49,Wunderground v.1.15,2013-12-15 04:15:00,
2013-12-14 23:16:00,30.6,29.3,29.99,NW,312,5.0,10.0,95,0.00,,,0.49,Wunderground v.1.15,2013-12-15 04:16:00,
2013-12-14 23:17:00,30.6,29.3,29.99,WNW,292,5.0,14.0,95,0.00,,,0.49,Wunderground v.1.15,2013-12-15 04:17:00,
2013-12-14 23:18:00,30.6,29.3,29.99,NW,315,5.0,14.0,95,0.00,,,0.49,Wunderground v.1.15,2013-12-15 04:18:00,
2013-12-14 23:20:00,30.6,29.1,29.99,NW,305,7.0,8.0,94,0.00,,,0.49,Wunderground v.1.15,2013-12-15 04:20:00,
2013-12-14 23:21:00,30.6,29.1,29.99,North,357,7.0,16.0,94,0.00,,,0.49,Wunderground v.1.15,2013-12-15 04:21:00,
2013-12-14 23:24:00,30.6,29.1,29.99,NNW,330,9.0,16.0,94,0.00,,,0.49,Wunderground v.1.15,2013-12-15 04:24:00,
2013-12-14 23:25:00,30.6,29.1,29.99,NW,325,9.0,16.0,94,0.00,,,0.49,Wunderground v.1.15,2013-12-15 04:25:00,
2013-12-14 23:27:00,30.6,29.1,29.99,NNW,330,9.0,16.0,94,0.00,,,0.49,Wunderground v.1.15,2013-12-15 04:27:00,
2013-12-14 23:28:00,30.6,29.1,29.99,NNW,330,9.0,16.0,94,0.00,,,0.49,Wunderground v.1.15,2013-12-15 04:28:00,
2013-12-14 23:29:00,30.6,29.1,29.99,NW,325,9.0,16.0,94,0.00,,,0.49,Wunderground v.1.15,2013-12-15 04:29:00,
2013-12-14 23:30:00,30.6,29.1,30.00,NNW,329,8.0,8.0,94,0.00,,,0.49,Wunderground v.1.15,2013-12-15 04:30:00,
2013-12-14 23:32:00,30.6,29.1,30.00,NW,305,7.0,8.0,94,0.00,,,0.49,Wunderground v.1.15,2013-12-15 04:32:00,
2013-12-14 23:34:00,30.6,29.1,30.00,NNW,333,7.0,8.0,94,0.00,,,0.49,Wunderground v.1.15,2013-12-15 04:34:00,
2013-12-14 23:35:00,30.6,28.8,30.00,NW,316,7.0,8.0,93,0.00,,,0.49,Wunderground v.1.15,2013-12-15 04:35:00,
2013-12-14 23:39:00,30.5,28.7,30.00,NNW,329,7.0,8.0,93,0.00,,,0.49,Wunderground v.1.15,2013-12-15 04:39:00,
2013-12-14 23:40:00,30.5,28.7,30.00,NNW,328,6.0,6.0,93,0.00,,,0.49,Wunderground v.1.15,2013-12-15 04:40:00,
2013-12-14 23:42:00,30.5,28.7,30.00,NNW,330,7.0,15.0,93,0.00,,,0.49,Wunderground v.1.15,2013-12-15 04:42:00,
2013-12-14 23:43:00,30.5,28.7,30.00,West,281,7.0,15.0,93,0.00,,,0.49,Wunderground v.1.15,2013-12-15 04:43:00,
2013-12-14 23:45:00,30.5,28.7,30.00,WNW,292,7.0,15.0,93,0.00,,,0.49,Wunderground v.1.15,2013-12-15 04:45:00,
2013-12-14 23:47:00,30.5,28.7,30.00,WNW,294,6.0,15.0,93,0.00,,,0.49,Wunderground v.1.15,2013-12-15 04:47:00,
2013-12-14 23:49:00,30.5,28.5,30.00,NNW,329,6.0,15.0,92,0.00,,,0.49,Wunderground v.1.15,2013-12-15 04:49:00,
2013-12-14 23:50:00,30.5,28.5,30.00,North,349,6.0,8.0,92,0.00,,,0.49,Wunderground v.1.15,2013-12-15 04:50:00,
2013-12-14 23:53:00,30.5,28.5,30.00,NW,323,5.0,10.0,92,0.00,,,0.49,Wunderground v.1.15,2013-12-15 04:53:00,
2013-12-14 23:54:00,30.5,28.5,30.00,NNW,329,6.0,10.0,92,0.00,,,0.49,Wunderground v.1.15,2013-12-15 04:54:00,
2013-12-14 23:55:00,30.5,28.5,30.00,NW,323,6.0,10.0,92,0.00,,,0.49,Wunderground v.1.15,2013-12-15 04:55:00,
2013-12-14 23:56:00,30.5,28.5,30.00,NW,323,6.0,10.0,92,0.00,,,0.49,Wunderground v.1.15,2013-12-15 04:56:00,